GFSCGP_250_rhum_075.txt.gz
RH
30 31 30 32 49 83 50 44 54 46 65 66 71 80 57 55 54 58 48 38 28 35 38 32 24 22 21 27 75 81 92 96 100 100 100 82 100 93 100 99 100 100 100 100
26 21 29 37 76 83 78 48 77 50 69 68 74 95 73 51 73 84 77 63 32 32 41 32 31 25 23 21 25 55 82 86 92 99 96 99 100 94 97 100 100 100 100 100
26 28 93 70 100 89 79 55 93 56 68 68 97 100 84 66 59 100 100 91 43 32 41 41 36 32 29 22 23 21 34 68 71 88 93 100 100 100 100 91 91 97 85 91
19 28 65 99 100 98 66 91 97 56 58 74 95 100 100 96 74 41 54 98 49 37 36 49 39 37 30 28 24 25 22 26 45 69 73 84 100 100 99 100 90 88 100 92
27 37 88 100 100 100 97 99 91 55 65 69 90 100 100 88 84 46 49 76 50 40 37 46 47 35 35 30 32 26 26 23 26 35 42 57 69 79 80 89 99 100 82 65
55 100 100 100 100 100 95 98 93 57 58 58 86 100 100 82 97 88 66 62 78 40 58 42 47 46 41 33 31 34 29 27 25 29 37 42 44 49 69 91 94 97 100 100
75 97 100 100 100 100 89 97 99 61 50 66 100 100 100 89 82 100 82 59 53 45 48 40 43 42 45 38 33 33 36 31 27 27 28 38 42 44 52 63 64 67 71 86
100 100 100 93 100 100 100 100 100 87 53 65 100 100 100 100 100 94 78 100 74 43 34 34 38 77 68 52 39 29 32 35 32 26 28 25 37 44 59 72 63 73 74 73
100 100 100 94 100 100 100 100 100 99 62 39 38 85 98 100 100 100 91 100 82 60 44 26 33 72 100 67 70 42 33 35 31 29 30 28 26 32 48 71 71 67 70 86
100 100 100 91 100 100 100 100 100 100 100 71 47 54 81 97 100 100 100 98 100 100 91 51 26 28 69 100 100 89 38 28 32 38 33 38 31 28 31 50 66 77 82 86
100 100 100 86 100 100 100 100 100 100 100 100 100 73 70 78 100 100 100 100 100 89 84 86 56 31 32 60 87 100 90 44 38 33 42 42 38 37 29 28 43 94 99 86
100 100 100 91 96 100 99 100 100 100 100 100 100 100 83 99 93 100 100 100 100 90 57 99 100 61 34 28 29 68 100 97 48 44 43 50 57 49 42 31 30 29 52 92
100 100 100 100 100 100 100 100 80 96 93 92 100 100 98 91 100 100 100 100 100 100 95 78 97 87 47 28 23 39 85 100 58 52 53 55 51 70 60 51 44 32 29 32
100 100 100 100 100 100 100 100 99 97 100 97 73 91 100 100 100 100 100 98 96 95 91 82 58 46 57 43 27 23 47 100 97 60 56 59 52 53 47 59 66 59 34 32
100 89 100 99 81 100 100 96 100 100 100 77 92 73 86 84 99 100 100 100 100 100 98 88 71 54 47 44 33 27 23 46 85 97 73 71 70 62 51 47 52 85 72 53
99 100 100 100 93 100 100 99 86 70 54 100 100 97 70 72 84 100 100 100 100 100 100 100 90 84 68 52 37 30 24 29 37 100 100 95 86 72 71 55 45 67 83 83
100 100 100 100 99 100 100 100 100 100 81 98 99 91 90 99 100 100 100 100 100 100 100 100 100 100 100 84 56 45 30 24 32 82 100 100 100 100 92 75 50 38 61 76
100 100 100 100 97 100 100 100 100 100 100 100 100 84 64 62 62 75 87 97 100 100 100 100 93 100 97 93 81 63 45 26 32 77 100 100 100 92 96 76 68 48 46 70
95 97 98 100 99 90 93 97 100 100 100 100 100 100 100 98 99 83 60 88 100 89 88 100 100 99 91 94 92 65 46 32 37 60 100 100 100 100 94 87 88 63 54 45
87 96 100 100 100 94 88 81 81 86 96 100 100 100 100 100 100 100 100 100 100 97 98 97 97 92 100 82 67 52 38 33 53 85 99 100 100 100 100 96 94 80 67 59
84 78 96 100 99 100 95 97 100 97 82 80 84 90 91 88 85 80 69 74 94 100 98 98 93 88 81 73 70 74 80 86 79 96 100 100 100 100 100 89 95 97 80 71
91 90 83 92 98 100 100 91 80 86 80 79 82 86 78 75 74 69 65 67 71 66 66 79 98 100 100 100 100 100 100 100 100 100 100 84 98 97 100 100 100 97 88 77
77 89 93 85 86 89 86 83 88 86 82 84 84 81 80 77 71 66 62 59 69 72 79 72 80 99 100 100 100 99 100 88 84 99 100 100 100 100 100 100 100 98 94 86
77 82 93 79 88 88 97 86 82 85 87 89 82 78 70 65 61 58 55 57 60 58 59 57 52 48 52 66 85 98 100 99 100 100 100 100 100 100 100 100 100 100 100 100
49 62 71 72 67 71 74 76 79 69 68 64 58 55 58 58 55 51 47 44 40 39 42 47 49 51 56 53 58 61 63 64 65 71 94 94 94 98 100 100 100 100 100 100
34 43 50 54 56 67 53 53 56 49 43 43 39 35 33 32 32 31 29 25 22 22 21 22 24 26 29 36 44 53 61 62 64 77 97 100 100 100 100 100 100 100 100 100

GFSCGP_250_rhum_078.txt.gz
RH
71 55 49 54 55 56 44 32 33 37 34 25 54 85 63 57 44 63 52 50 50 39 32 25 22 25 23 22 19 92 71 99 100 100 78 97 100 100 86 83 100 100 100 100
48 44 52 54 57 76 47 35 38 36 32 32 71 83 69 62 46 58 61 51 68 67 47 27 24 28 28 23 22 20 91 75 92 100 81 92 79 99 100 100 100 100 97 92
41 39 34 35 34 37 34 42 43 42 39 37 77 85 89 70 62 65 68 63 89 96 73 27 24 28 27 29 23 23 21 65 80 81 100 100 88 51 94 98 100 85 100 100
22 25 21 24 26 32 46 61 55 67 61 53 87 91 79 79 64 82 74 70 100 100 84 30 29 28 32 26 31 24 22 20 25 66 72 86 98 99 56 61 78 90 82 100
22 22 19 23 28 75 98 100 99 76 70 74 89 98 100 86 72 94 80 80 62 45 43 34 32 30 30 30 25 27 24 22 22 19 33 59 78 83 98 100 82 62 58 64
19 16 16 20 27 85 100 100 100 88 84 76 100 99 100 93 85 100 100 100 84 52 44 52 28 34 29 35 40 25 24 27 23 23 22 25 32 58 75 74 82 89 76 73
18 18 16 19 23 86 100 100 100 96 73 91 100 100 100 100 72 81 100 100 100 77 46 52 35 29 36 42 46 47 35 24 26 24 25 24 26 32 34 50 59 73 96 99
23 21 18 24 36 89 100 100 100 100 98 98 100 100 100 100 77 64 93 100 100 100 58 41 44 29 33 41 95 38 64 53 28 27 26 25 26 27 37 40 46 69 77 82
36 33 37 57 100 100 100 100 100 100 100 90 100 100 100 100 100 77 68 93 100 100 86 46 52 37 26 30 54 96 100 100 48 30 29 29 28 27 28 37 42 46 50 54
64 65 86 97 100 100 100 100 100 100 100 88 100 100 100 94 100 100 98 97 99 100 98 100 73 46 35 25 28 54 100 100 70 73 41 34 33 32 29 29 33 85 98 77
95 100 100 100 100 100 100 100 100 100 100 100 100 100 100 100 94 100 70 91 100 100 100 100 100 100 80 44 35 27 53 85 100 100 90 40 42 35 26 29 28 29 45 74
100 100 100 100 100 100 89 100 100 100 100 100 100 100 100 100 100 89 81 64 82 100 100 100 100 97 58 46 71 35 24 28 27 93 100 64 35 49 36 29 31 30 30 27
100 100 100 100 100 100 100 100 100 100 100 99 95 100 100 100 100 100 88 100 80 68 82 80 85 86 70 52 45 58 33 24 23 36 62 93 55 49 52 39 44 38 35 39
100 100 100 100 100 100 100 100 100 100 100 100 92 98 100 100 100 100 100 100 100 100 78 73 86 100 100 87 64 34 31 31 26 24 29 56 83 74 65 62 50 43 44 37
100 100 100 100 100 100 100 100 100 100 100 100 100 100 100 100 100 100 100 100 100 100 100 91 97 100 100 100 97 70 44 41 30 28 26 25 28 62 98 80 64 60 50 49
86 100 100 100 100 100 100 100 100 100 100 100 100 100 97 96 100 99 86 97 98 100 100 99 100 100 99 100 100 84 61 49 37 30 28 26 23 24 66 100 100 89 74 58
79 86 100 100 100 100 100 100 100 100 100 100 100 100 91 84 86 97 100 85 91 100 100 100 100 100 100 98 97 95 78 49 40 46 45 43 35 27 29 66 100 100 100 78
93 66 86 100 100 100 100 100 100 100 100 100 100 100 88 96 88 93 77 76 100 100 100 100 100 100 100 100 100 100 100 100 91 86 72 58 56 43 29 28 63 96 100 100
81 80 65 100 100 100 100 100 100 100 100 100 100 97 65 100 92 79 100 100 100 100 100 97 92 92 99 100 100 100 100 100 82 76 78 73 65 52 47 36 50 58 90 100
78 77 69 68 99 100 100 100 100 100 75 66 98 95 100 99 84 80 64 68 78 68 69 81 84 84 93 94 94 91 98 100 100 100 100 98 78 68 50 42 39 85 100 100
93 92 84 72 75 81 82 81 92 98 84 100 100 100 100 100 100 100 100 100 100 80 66 66 87 98 100 100 85 69 68 70 88 97 94 92 85 76 73 56 47 38 70 100
70 85 85 80 72 87 100 100 100 100 95 92 94 100 100 100 100 100 100 100 100 100 100 100 100 100 100 100 100 100 100 94 76 78 74 60 67 85 82 88 84 88 82 72
52 75 86 91 94 95 85 100 100 99 78 84 78 84 100 100 89 87 100 100 100 100 100 100 100 100 95 78 75 70 91 87 100 100 100 100 100 100 100 100 100 100 100 100
29 55 80 98 98 96 100 96 91 94 98 89 77 71 77 79 78 77 74 71 70 72 76 80 80 76 73 65 66 63 76 89 100 100 100 100 100 100 100 100 95 100 100 100
24 46 63 89 96 86 91 76 89 95 72 98 100 98 89 81 82 75 68 68 76 76 69 63 58 58 62 68 71 72 71 95 100 100 99 89 79 80 74 68 73 78 80 85
24 28 44 73 85 76 84 98 82 96 83 84 86 84 82 78 71 70 75 73 72 68 63 59 58 55 51 50 47 48 53 52 50 54 56 60 61 61 64 67 66 73 93 99

GFSCGP_250_rhum_081.txt.gz
RH
72 60 71 72 58 51 50 51 41 45 69 57 52 42 34 42 30 71 68 44 45 62 47 40 35 25 22 21 20 19 19 61 93 100 69 99 100 79 71 91 94 91 95 99
71 93 86 63 48 47 57 54 45 53 67 55 54 32 36 64 35 81 74 46 41 64 55 61 60 29 24 22 20 19 20 22 86 100 100 96 90 95 100 43 77 75 71 92
57 62 56 58 60 49 46 41 50 49 62 43 48 23 41 63 35 82 76 53 37 65 59 80 80 53 25 24 23 19 20 21 60 84 100 100 75 73 92 100 92 88 89 90
58 48 45 41 44 43 42 39 33 46 44 36 33 30 39 97 44 80 85 58 40 57 73 71 100 38 24 26 23 22 21 20 20 53 69 96 100 99 72 88 100 100 100 99
66 60 40 41 37 39 31 27 26 44 44 39 30 30 74 100 66 83 100 72 52 67 86 96 73 38 30 22 28 25 21 23 21 20 20 33 71 81 100 100 95 88 100 100
57 44 44 45 32 23 23 26 27 33 37 38 45 35 100 100 100 80 91 87 64 78 98 99 71 42 38 26 28 25 31 31 26 22 22 22 19 49 70 100 100 90 85 65
55 54 41 32 20 19 20 26 24 29 31 43 70 46 100 100 100 72 63 88 94 100 100 96 80 46 42 40 26 26 29 39 43 30 29 24 23 20 21 44 68 81 85 97
56 47 30 23 16 17 17 24 23 31 50 65 89 94 100 100 100 71 65 95 100 100 100 100 97 65 42 36 30 25 23 29 87 68 39 33 24 21 22 21 27 33 45 68
50 39 27 18 18 18 22 26 46 56 88 72 91 100 100 100 100 82 69 100 92 100 100 100 100 98 57 35 38 28 24 43 79 78 29 34 43 32 25 22 23 25 34 37
44 42 25 18 23 23 29 62 74 90 87 100 100 100 100 100 100 100 75 92 84 94 100 100 100 100 99 67 48 36 25 26 34 99 64 56 54 29 29 27 26 24 25 36
40 43 28 27 32 30 46 86 99 100 92 100 100 100 100 100 100 100 87 64 85 96 100 100 100 100 100 100 91 50 44 35 24 29 47 69 64 60 32 28 32 31 33 32
41 40 54 51 79 57 74 100 100 96 100 100 100 100 100 100 100 100 100 98 79 81 100 100 100 100 100 100 98 87 71 49 28 26 23 27 31 33 72 43 27 33 32 35
42 48 92 86 96 93 100 100 100 100 100 100 100 100 100 100 100 100 100 100 95 66 84 93 100 100 100 100 100 100 99 76 54 41 37 24 24 27 36 61 64 50 44 36
44 64 100 100 99 100 100 100 100 100 100 100 100 100 100 100 100 100 99 100 100 100 99 82 74 73 79 99 100 85 76 90 93 77 57 35 28 24 25 27 27 55 62 56
50 80 100 100 100 100 100 100 100 100 100 100 100 100 100 100 100 100 96 97 94 100 100 94 72 58 50 60 79 87 89 100 93 78 67 62 38 35 27 25 24 26 28 56
59 93 100 100 100 100 100 100 100 100 100 100 100 100 100 100 100 100 100 92 93 100 100 100 99 77 53 35 68 100 100 100 98 96 87 78 58 38 38 32 31 31 28 28
47 88 96 100 100 100 100 100 100 100 100 100 100 100 100 100 100 100 100 98 70 84 98 100 100 100 94 90 82 81 91 83 91 90 87 72 46 43 48 37 40 40 38 34
48 77 94 100 100 100 100 99 100 100 100 100 100 90 100 100 100 84 86 95 100 100 100 100 100 100 100 100 84 74 67 74 77 82 77 74 60 69 70 73 69 60 46 40
52 58 76 100 100 100 100 100 100 100 100 100 100 83 85 100 100 100 100 100 100 96 84 90 98 82 71 72 76 86 94 89 81 87 77 87 96 99 98 91 86 68 52 50
46 54 56 86 98 100 100 100 100 97 100 100 100 100 100 100 100 100 100 99 98 100 97 84 73 74 96 100 100 100 100 100 100 100 100 100 100 100 100 100 89 84 99 100
42 43 50 80 91 100 100 100 100 100 95 80 100 95 100 100 100 100 100 100 100 100 85 70 82 80 80 99 100 99 96 93 90 92 76 70 75 76 65 63 74 80 74 86
24 32 43 57 74 92 100 100 100 100 100 100 94 98 100 100 100 100 100 100 100 100 86 95 100 95 85 75 77 80 79 58 53 56 75 96 100 100 100 100 100 100 91 89
19 25 33 46 71 88 82 98 100 100 100 100 100 100 100 84 98 100 100 100 100 99 86 54 94 100 99 94 100 100 99 87 97 99 100 100 100 89 96 89 84 54 55 69
19 24 32 38 58 81 94 90 97 99 100 100 100 100 100 100 93 76 60 68 67 76 100 100 100 100 100 100 100 100 100 100 100 100 100 100 88 86 86 79 88 93 98 100
22 24 25 32 46 78 94 85 91 86 79 85 97 100 100 100 100 99 99 100 92 81 78 97 100 100 100 100 100 100 89 75 77 72 67 70 68 67 64 67 79 95 100 100
18 25 26 27 33 72 92 98 91 68 63 64 71 81 83 73 72 76 94 99 98 100 98 92 94 90 84 80 75 64 58 63 64 61 69 79 86 98 90 91 72 68 65 81

GFSCGP_250_rhum_084.txt.gz
RH
68 78 74 71 70 55 52 57 58 65 74 72 47 40 42 43 38 36 48 37 47 75 51 39 45 48 38 25 23 22 19 18 18 74 100 58 51 93 100 100 100 100 100 100
72 82 79 82 83 88 87 63 52 57 68 54 43 38 48 48 42 39 60 38 65 84 61 47 54 54 59 35 28 22 20 18 19 18 72 100 95 52 83 100 100 94 100 100
96 100 100 97 96 92 86 76 69 46 44 40 31 38 39 41 40 52 52 46 67 96 64 47 51 61 69 44 27 22 20 19 19 21 39 88 100 84 43 68 87 79 80 91
97 100 92 76 71 65 60 64 51 38 40 43 35 34 40 43 45 81 43 58 82 100 61 48 44 66 71 61 32 23 21 20 18 21 20 45 93 100 50 38 42 68 64 67
100 98 93 80 64 62 66 56 52 48 44 38 34 32 47 34 54 63 40 76 100 100 60 43 41 68 79 67 41 21 24 20 22 22 20 20 32 85 100 100 86 68 66 93
100 97 92 72 73 70 62 53 48 51 43 28 39 25 41 46 65 67 42 85 100 99 60 53 45 70 97 76 40 32 23 23 23 25 25 22 19 21 55 93 86 97 99 82
97 99 94 85 72 66 60 54 49 41 30 27 22 17 99 51 68 84 48 81 100 100 60 54 59 80 100 84 44 46 30 24 24 50 62 30 23 20 19 19 19 39 90 99
92 98 94 90 76 58 61 56 38 27 20 21 16 23 75 76 98 100 59 81 100 100 80 61 64 87 100 88 52 39 36 25 24 23 76 62 24 24 21 20 20 20 20 25
100 100 98 83 75 61 61 40 28 21 18 21 22 37 89 100 84 100 58 87 99 100 99 90 75 100 100 100 86 51 36 29 25 24 32 63 55 50 41 32 22 21 21 21
96 98 88 78 76 57 41 32 23 18 20 26 30 37 85 100 100 99 55 67 96 100 100 97 93 100 100 100 100 84 54 38 35 25 25 28 57 76 75 66 51 34 24 22
90 91 78 78 76 45 37 26 23 19 26 32 39 66 100 100 100 100 75 51 74 97 100 100 100 100 100 100 100 100 94 59 48 37 34 30 32 31 28 34 49 49 59 36
90 94 75 69 79 41 37 29 26 31 51 48 54 94 100 100 100 100 100 74 54 73 100 100 100 100 99 100 100 100 100 97 59 44 41 53 50 29 28 23 24 31 41 59
86 80 86 82 77 37 46 37 38 51 72 54 59 99 100 100 100 100 100 99 72 61 72 99 100 100 100 100 100 100 100 100 100 90 85 87 69 57 42 34 26 24 23 26
88 91 87 90 64 47 84 81 61 87 100 99 89 89 100 99 100 100 100 100 100 80 79 85 100 100 100 100 100 95 100 100 100 100 100 95 84 71 72 53 46 34 29 27
61 73 97 92 77 70 99 100 97 100 100 100 91 94 100 100 100 85 100 100 95 93 92 89 100 100 100 100 100 100 100 100 100 100 100 100 80 77 75 52 66 61 47 40
69 75 74 67 90 85 95 100 100 100 100 100 96 96 100 100 100 100 100 99 92 75 95 73 99 100 98 100 100 100 100 85 79 85 99 89 95 98 99 80 79 74 66 58
57 57 59 71 97 100 93 100 100 100 100 100 100 82 100 100 100 100 100 100 100 100 90 94 81 88 64 53 71 77 80 77 66 58 71 100 100 100 96 92 75 68 64 52
67 54 56 79 91 100 93 100 100 100 100 100 100 80 100 100 98 100 100 100 100 100 83 53 73 91 97 74 52 42 59 68 94 100 99 99 100 100 89 94 96 90 76 71
66 56 54 75 80 100 99 95 100 100 100 100 100 100 100 100 100 99 100 100 100 100 100 46 46 70 77 94 100 100 95 63 73 86 100 93 84 68 72 96 92 86 68 80
51 57 50 61 70 100 100 80 98 100 100 100 74 100 100 100 100 100 100 100 100 100 100 100 98 84 100 100 100 89 83 100 96 68 58 63 69 73 86 86 100 100 100 100
37 48 52 59 55 95 100 100 90 99 100 100 99 97 100 100 100 100 100 100 95 96 100 100 100 100 100 100 100 100 99 92 75 66 87 100 100 100 100 100 100 100 100 100
22 32 48 48 44 85 100 100 90 73 89 100 100 89 81 96 94 100 100 100 100 96 94 82 63 70 76 77 65 75 72 57 57 76 84 92 95 97 100 100 98 88 83 84
20 19 29 42 40 56 90 100 100 99 74 98 100 100 100 91 75 97 100 100 99 100 100 100 100 88 79 83 75 65 65 72 68 73 85 86 86 72 74 94 74 51 62 66
26 23 18 29 35 44 63 96 100 100 100 89 94 99 100 100 100 100 100 93 80 73 84 100 100 100 92 90 99 99 98 88 75 68 56 62 48 55 56 76 97 100 100 100
22 19 21 22 25 35 39 67 100 100 100 100 100 96 90 94 99 100 99 98 99 100 100 97 99 95 100 100 100 94 95 96 93 93 100 100 100 100 100 100 100 100 100 100
15 15 19 25 24 26 37 44 86 99 100 100 100 100 100 89 82 81 81 90 88 83 84 94 94 96 100 100 100 100 100 100 96 72 95 100 100 100 100 100 94 86 78 62

GFSCGP_250_rhum_087.txt.gz
RH
98 57 58 94 64 55 62 65 63 98 85 62 47 38 59 57 44 52 49 49 40 43 40 54 51 60 46 38 45 41 32 23 18 17 17 46 61 100 100 100 100 100 100 100
73 60 79 76 69 52 70 83 78 68 82 60 49 46 54 50 49 48 51 42 45 47 43 54 55 66 43 38 50 53 33 25 19 18 17 40 53 62 90 100 100 100 100 100
100 100 100 98 80 65 58 79 66 62 75 70 61 36 45 52 46 48 45 42 46 50 52 50 58 75 44 42 56 58 33 27 20 18 16 21 59 82 66 87 96 100 100 100
95 100 100 92 97 98 92 99 96 71 70 67 52 36 59 73 58 50 49 49 57 57 59 60 68 78 48 44 54 68 32 27 23 18 16 17 20 66 91 100 99 72 95 100
100 96 88 92 86 74 98 99 91 84 92 85 57 50 65 67 57 55 61 56 68 59 74 61 81 71 49 45 52 68 39 28 26 19 19 19 20 21 55 78 83 62 67 77
100 100 100 100 100 86 61 72 79 84 79 54 83 60 56 65 58 59 64 56 68 66 67 68 80 71 50 44 49 67 66 32 26 22 20 37 22 19 19 38 89 100 72 85
97 99 100 100 100 100 95 94 81 65 59 65 76 46 67 57 59 60 55 56 56 75 61 73 84 74 56 44 44 64 69 37 32 25 26 59 59 25 21 20 20 21 53 82
92 93 98 100 100 96 95 87 83 76 75 72 64 53 60 43 42 38 37 44 56 53 72 98 79 75 67 54 47 72 83 57 44 31 23 23 65 65 47 33 27 28 26 22
90 94 100 99 89 83 91 94 86 70 71 66 68 57 31 28 25 27 37 58 63 65 100 100 67 83 67 64 56 82 95 61 36 39 27 24 28 28 48 44 49 44 40 29
99 97 98 98 100 95 98 78 71 73 82 61 46 30 24 24 34 44 54 67 57 85 100 100 93 79 69 65 75 99 100 89 60 41 32 28 24 26 25 31 31 26 27 25
100 93 96 99 92 88 95 76 73 87 63 40 30 23 31 30 40 53 70 73 61 95 100 100 100 87 70 65 86 100 100 100 91 58 42 45 32 30 33 36 38 30 29 23
100 99 100 100 92 97 87 76 78 79 46 30 25 30 40 54 46 66 84 64 59 99 100 100 100 100 91 75 99 100 100 100 100 100 93 67 58 42 32 42 40 36 35 29
100 99 95 92 91 90 91 83 77 69 36 33 30 55 60 100 100 100 99 72 65 96 90 100 100 100 100 89 100 100 100 100 100 100 100 87 62 48 43 43 52 55 51 52
100 100 100 96 97 100 100 90 66 50 36 32 46 60 100 100 100 100 100 88 70 94 100 99 100 100 100 96 94 100 100 100 100 100 100 100 100 100 100 90 81 65 78 88
96 97 100 99 86 86 85 97 64 41 39 40 70 98 100 100 100 100 100 99 61 85 84 90 100 100 100 100 99 100 100 100 100 100 100 100 100 100 92 97 72 68 73 92
100 99 96 100 96 74 77 98 59 59 46 82 100 100 100 100 100 100 100 100 90 60 80 100 100 100 100 100 100 100 100 100 100 100 100 100 100 100 96 93 82 75 66 68
100 100 98 98 87 72 77 77 69 82 85 100 100 100 100 100 100 100 100 100 100 78 76 100 100 95 90 100 100 100 100 100 99 100 100 100 100 100 100 100 100 99 98 86
100 92 71 69 63 62 94 74 67 87 98 100 100 100 100 100 100 100 100 100 89 100 94 87 100 100 100 100 98 100 100 100 100 100 100 100 100 100 98 100 100 100 100 100
69 68 66 58 52 70 91 58 64 87 97 100 100 100 100 100 100 100 100 100 100 100 98 99 88 100 88 95 100 100 100 99 78 70 77 87 92 87 97 99 100 100 100 100
63 67 65 66 55 72 91 75 59 100 93 100 100 100 100 100 100 100 100 100 100 100 100 100 88 98 69 53 94 88 100 100 100 100 100 100 100 100 91 87 94 97 91 82
59 61 68 60 53 69 95 66 50 95 100 99 100 100 100 100 100 100 100 100 100 100 100 100 100 100 99 55 66 47 52 91 100 100 100 100 100 98 100 100 100 93 76 76
45 57 65 61 56 69 90 58 61 64 99 100 100 100 100 100 100 100 80 96 100 100 100 100 98 100 100 98 83 49 38 40 62 81 98 100 91 94 100 99 94 74 66 72
36 45 44 53 57 65 68 55 76 64 76 99 100 100 100 100 100 100 100 94 92 75 100 100 100 100 90 89 100 100 100 96 63 45 38 65 89 80 90 85 68 52 60 86
31 24 28 36 45 51 56 49 56 81 66 82 95 100 97 100 100 100 100 86 99 100 100 100 100 100 100 100 100 100 100 84 68 66 52 52 49 44 46 44 61 82 74 66
32 24 19 15 25 41 48 50 50 64 91 74 71 94 100 100 100 100 100 100 100 99 100 100 100 93 93 100 100 92 91 93 88 95 93 96 94 76 78 80 76 86 91 74
26 25 22 21 22 23 31 40 46 51 78 100 95 74 82 96 100 99 96 95 95 100 100 100 100 100 100 100 100 100 100 100 100 100 100 98 89 84 93 95 72 63 94 100

GFSCGP_250_rhum_090.txt.gz
RH
86 46 44 64 67 64 55 38 46 42 45 48 46 45 42 61 65 62 57 57 52 56 61 54 51 45 38 42 42 53 44 41 49 23 19 16 29 96 100 96 100 100 100 100
82 46 78 77 73 76 69 58 44 42 52 61 48 44 38 85 92 61 50 52 66 71 67 53 51 45 36 43 44 54 43 42 52 22 20 16 18 62 100 100 76 99 100 100
100 94 88 89 75 69 66 56 43 44 50 46 42 41 65 81 95 90 61 64 72 66 68 61 55 48 39 44 45 56 42 52 56 27 21 18 17 45 96 100 100 82 89 100
92 96 88 73 74 72 62 62 44 46 54 76 83 49 68 78 73 100 99 80 79 82 85 71 62 51 43 40 46 58 41 58 60 26 23 20 19 23 67 99 100 100 100 100
99 100 100 90 100 100 81 65 53 62 92 96 81 62 84 98 88 93 85 75 66 79 80 77 67 55 40 43 49 59 44 57 67 28 23 22 25 20 36 82 92 100 100 100
100 100 100 97 98 100 100 88 80 77 91 71 100 63 88 93 100 100 75 74 70 66 71 76 58 48 48 50 67 62 48 53 70 47 26 23 26 20 22 33 78 92 100 100
100 100 100 100 100 97 96 93 95 95 90 82 99 75 98 82 85 99 98 77 68 78 80 68 55 60 51 55 69 67 50 53 63 74 30 26 37 24 34 27 24 34 74 100
100 100 100 100 100 100 100 100 100 96 97 76 91 84 95 88 63 70 66 66 68 73 68 69 68 64 60 57 68 69 49 52 54 80 35 30 30 27 38 34 30 23 23 24
100 100 100 100 88 90 100 100 96 100 100 100 99 95 86 77 62 66 75 69 52 47 59 72 72 62 70 61 90 68 48 49 54 75 52 36 28 29 32 26 25 23 21 19
100 100 100 100 94 96 97 96 100 100 100 100 100 100 76 72 74 67 55 42 40 38 55 66 70 70 77 69 94 66 50 47 53 70 78 42 34 29 28 27 24 22 25 23
100 100 100 100 95 89 94 97 97 100 94 91 96 88 80 76 60 43 25 23 24 28 37 55 78 93 96 83 97 72 56 55 57 79 100 66 44 38 31 28 27 27 27 24
100 100 100 98 100 100 95 99 95 100 89 86 81 84 74 63 35 25 24 24 28 36 59 97 100 100 100 85 100 84 65 59 69 100 100 98 82 48 42 36 30 35 37 34
100 100 100 100 91 88 100 97 88 90 80 80 77 80 52 45 28 31 33 48 58 78 100 100 100 100 100 91 100 84 71 76 91 100 100 100 100 99 75 59 42 40 42 50
100 100 100 100 91 95 99 95 87 79 74 78 73 64 50 44 39 63 95 100 100 100 100 100 100 100 100 97 91 90 77 71 87 90 100 100 100 100 100 100 98 86 64 71
86 90 80 84 92 100 99 95 86 73 66 62 63 55 100 70 72 97 100 100 100 100 100 100 100 100 100 100 100 100 100 99 100 100 100 100 100 100 100 97 82 78 72 85
93 93 93 87 86 92 92 93 77 77 63 71 65 59 100 99 100 92 100 100 100 100 100 100 100 100 100 100 100 100 100 100 100 100 100 100 100 100 80 77 63 56 53 65
90 77 86 81 76 81 97 96 84 80 68 72 65 79 100 100 100 100 100 100 100 100 100 100 100 100 100 100 100 100 100 100 100 100 100 100 100 100 100 97 80 67 64 64
80 73 86 95 91 91 93 90 84 84 58 72 81 99 100 100 100 100 100 100 100 100 100 100 100 100 100 100 100 100 100 100 100 100 100 100 100 100 100 100 99 97 100 100
73 76 85 88 95 100 95 82 75 65 55 74 94 100 100 100 100 100 100 100 100 100 100 100 100 100 100 100 100 100 100 100 100 100 100 100 100 100 100 100 100 100 100 100
71 84 100 100 99 100 100 78 59 53 55 75 100 100 100 100 100 100 100 100 90 100 100 100 100 100 100 100 100 100 100 100 100 100 100 98 100 100 100 100 100 100 100 100
84 88 94 84 83 96 92 65 46 51 69 70 100 100 100 100 100 100 100 100 100 100 98 100 100 100 100 100 100 100 100 100 100 100 100 100 100 100 99 96 95 85 85 92
68 76 65 63 68 95 83 63 38 56 69 74 100 100 100 100 100 100 100 99 100 100 98 100 100 100 100 100 100 100 100 99 80 88 100 100 100 100 100 100 100 100 100 100
52 64 73 65 70 91 65 54 39 55 69 69 100 100 100 100 100 100 100 100 99 93 95 100 81 71 96 100 100 87 75 53 88 78 72 100 94 89 100 100 100 100 100 100
42 56 58 61 71 61 58 49 39 49 68 67 89 100 100 100 100 100 100 100 100 100 100 82 82 100 100 100 100 100 100 87 100 97 77 65 98 55 42 38 40 54 74 68
41 48 42 44 42 49 49 52 47 42 54 63 79 84 98 100 100 100 100 100 100 100 100 100 100 100 100 100 100 100 100 100 100 100 84 66 56 62 61 66 56 46 47 44
35 33 27 24 25 27 37 42 46 46 46 49 71 80 85 89 98 100 100 100 100 100 100 100 100 100 100 98 89 91 100 100 100 100 100 100 100 100 100 88 69 61 63 67

GFSCGP_250_rhum_093.txt.gz
RH
61 69 80 85 100 100 97 100 100 78 64 53 75 91 46 60 90 74 50 36 40 52 90 100 100 91 69 54 48 49 42 35 41 46 43 41 17 17 67 100 96 100 100 100
47 47 51 73 94 96 78 80 80 85 83 65 77 90 88 56 70 60 56 57 51 51 68 86 83 75 77 55 46 53 41 35 40 47 44 48 19 17 55 100 99 98 88 100
43 47 47 55 67 91 88 84 78 70 69 54 44 55 57 63 49 46 79 46 45 42 59 82 81 71 66 62 50 51 51 40 41 47 45 53 21 18 35 100 100 100 71 100
53 70 60 54 61 86 100 88 79 79 57 48 42 51 68 67 55 44 49 46 54 68 88 100 96 80 70 55 52 60 55 43 43 46 50 55 23 23 21 100 100 88 100 55
83 79 67 98 100 100 99 100 78 66 63 62 62 63 61 70 58 42 47 62 67 78 72 96 99 90 68 50 58 59 61 46 46 46 53 51 23 27 21 66 100 92 96 97
69 97 100 98 92 84 96 100 98 94 84 80 78 72 72 59 48 51 72 76 74 81 87 82 100 94 68 67 60 65 62 50 52 47 55 56 23 33 23 40 96 100 100 68
76 100 100 100 100 100 96 82 79 75 71 71 70 70 79 52 52 75 93 91 99 96 100 87 90 88 88 80 65 70 64 57 59 48 54 69 31 26 26 28 45 96 100 100
67 86 100 100 100 100 100 88 97 87 77 75 71 72 65 54 62 69 100 98 80 92 100 98 100 100 94 77 78 68 64 61 69 49 54 65 62 27 28 44 31 34 66 92
86 89 100 100 96 88 84 96 100 93 70 81 84 87 86 80 88 90 100 100 100 100 73 70 77 89 77 83 82 62 62 68 76 50 54 61 75 37 30 26 33 32 25 31
100 100 100 100 99 93 98 94 84 78 86 94 98 98 100 100 93 89 97 83 84 70 63 77 87 84 85 80 74 56 61 80 79 54 52 59 73 52 41 30 28 29 24 22
100 100 100 100 100 100 100 100 100 100 100 100 100 100 100 95 82 91 99 80 68 61 67 69 72 85 84 76 67 53 61 92 88 58 51 60 64 82 65 40 28 24 23 21
100 100 100 100 100 100 100 100 100 100 96 97 100 100 92 85 83 74 68 70 65 48 44 51 48 53 55 60 59 58 62 99 94 69 51 60 60 74 87 63 42 30 26 25
100 100 100 98 87 93 95 94 94 94 98 92 88 98 90 85 72 64 77 53 53 42 35 33 31 32 44 53 50 64 78 100 100 85 59 56 65 66 91 85 51 48 43 34
100 91 100 100 100 91 89 90 93 90 84 83 85 91 86 77 78 85 58 57 37 30 32 34 28 33 41 63 60 89 100 100 100 91 78 69 68 72 100 100 100 96 66 68
94 87 89 92 93 96 97 92 85 84 79 90 81 85 85 87 84 71 56 52 96 99 98 100 96 73 99 100 92 100 100 100 100 99 100 100 90 99 100 100 100 100 100 100
54 62 66 69 69 82 94 87 85 91 88 96 89 92 92 80 70 56 46 89 100 100 100 100 100 100 100 100 100 86 100 100 100 100 100 100 100 100 100 100 95 81 93 98
60 64 56 65 79 89 100 96 99 100 92 100 93 87 88 67 76 55 87 100 98 100 100 100 100 100 100 100 100 100 91 100 100 100 100 100 100 100 100 83 87 75 58 67
42 53 68 89 99 100 95 94 100 100 98 99 82 82 82 84 100 85 100 100 100 100 100 100 100 100 100 100 100 100 100 100 100 100 100 100 100 100 100 100 94 92 86 86
71 94 97 89 89 94 96 95 100 99 88 86 73 81 78 100 100 100 100 100 100 100 100 100 100 100 100 100 100 100 100 100 100 100 100 100 100 100 100 100 100 86 81 69
75 82 86 87 94 97 92 94 88 90 93 88 76 79 80 100 100 100 100 100 100 100 100 100 100 100 100 100 100 100 100 100 100 100 100 100 99 100 100 100 100 100 100 99
34 48 60 77 91 93 80 78 87 91 94 72 73 74 89 100 100 100 100 100 100 100 100 100 100 100 100 100 100 100 100 97 99 97 100 93 100 100 100 100 100 100 100 100
50 62 63 73 88 93 82 76 69 69 70 71 62 70 100 100 100 100 100 100 100 100 100 100 100 100 100 100 100 100 100 99 91 98 100 100 98 100 100 100 100 100 100 100
65 68 78 94 100 95 68 60 60 61 61 72 54 66 100 100 100 100 100 100 100 100 100 100 100 100 100 100 100 100 100 100 100 100 100 96 100 100 100 100 100 100 100 100
65 72 78 83 80 64 62 59 54 54 54 58 62 58 91 95 100 100 100 100 100 100 100 100 100 100 92 100 93 100 100 100 100 100 100 98 100 100 100 100 100 100 95 100
58 68 66 66 65 59 52 56 54 50 56 53 65 58 75 93 98 100 100 100 100 97 98 100 97 99 87 100 100 92 100 96 96 100 99 100 100 100 99 96 82 73 76 75
47 51 50 48 46 46 48 51 50 52 53 49 48 59 61 88 80 92 100 100 100 91 94 94 100 100 100 99 100 86 92 92 100 85 100 95 93 91 86 83 86 62 49 49

GFSCGP_250_rhum_096.txt.gz
RH
20 24 30 38 48 61 86 97 100 97 90 93 100 90 69 72 61 80 100 65 49 54 63 58 46 48 55 100 100 100 99 74 51 45 44 37 43 42 30 16 41 100 82 75
9 12 32 38 43 56 77 92 99 100 87 93 100 100 100 79 63 72 85 79 63 54 51 60 57 48 40 47 98 100 83 69 52 46 46 38 45 44 40 17 55 99 93 62
10 14 28 40 44 49 69 80 100 100 100 100 100 100 100 100 83 68 65 61 62 70 52 54 62 48 36 48 52 68 82 76 56 52 50 40 47 45 37 17 77 100 95 81
10 12 19 39 48 46 56 85 100 100 100 100 100 89 80 100 100 80 72 59 68 62 65 75 64 46 40 47 61 66 80 79 58 54 54 44 49 46 35 19 96 100 98 81
15 14 19 25 56 66 84 90 100 100 99 98 100 100 100 92 76 70 87 84 67 69 79 73 63 45 43 50 62 73 96 78 59 62 49 46 50 48 31 18 95 100 100 96
13 17 20 29 47 58 63 87 85 88 83 82 87 93 100 96 97 80 66 65 64 56 61 65 67 48 46 62 58 79 99 77 60 65 45 50 51 51 33 22 36 100 87 93
19 22 30 39 41 49 71 70 84 78 64 62 76 94 100 99 100 100 88 75 68 68 73 74 59 49 61 66 70 89 89 76 76 62 44 55 52 54 32 30 32 96 100 71
27 41 64 69 95 100 90 71 76 85 90 91 100 100 100 88 80 88 92 91 85 82 86 68 61 54 77 83 80 84 88 84 86 64 47 58 54 55 46 29 39 39 99 100
51 58 57 81 100 100 98 100 100 100 100 100 98 96 86 83 80 86 91 97 96 94 79 60 59 61 76 82 100 100 99 83 70 68 53 60 57 56 66 32 51 35 52 90
72 82 81 87 94 100 100 100 100 100 96 87 87 93 94 84 83 92 100 100 100 94 64 63 71 85 82 93 83 74 74 72 66 64 55 62 60 61 63 67 30 36 40 35
85 96 96 80 78 100 100 100 100 100 100 100 100 98 90 79 80 80 75 80 79 69 79 99 94 100 99 100 85 75 75 72 65 60 59 61 66 65 66 71 60 33 34 29
100 100 100 98 94 95 100 100 100 100 100 100 100 96 87 73 66 67 60 65 84 94 94 96 95 96 87 82 75 68 68 74 65 66 59 59 72 61 73 77 78 45 35 30
100 100 100 100 100 96 92 100 100 100 100 100 100 95 82 77 72 79 82 90 94 86 79 69 62 61 55 53 58 57 65 70 55 70 61 61 81 62 66 78 77 64 56 41
100 100 100 100 100 100 100 100 100 100 100 100 100 100 100 98 94 84 73 60 62 62 55 51 51 49 46 43 41 39 47 59 63 68 64 65 96 65 68 67 67 74 92 100
100 100 100 97 97 100 100 100 100 100 97 94 97 100 90 85 86 76 67 65 61 59 72 49 36 34 27 26 28 36 46 53 72 74 92 90 100 71 68 68 69 82 100 100
100 100 94 96 100 100 100 100 99 89 79 86 98 99 96 82 72 74 76 68 70 100 100 99 86 68 30 30 29 36 58 67 72 85 100 100 100 84 71 79 91 96 100 100
64 46 58 86 98 99 88 90 84 82 85 87 88 100 90 78 85 81 75 65 95 94 100 100 100 94 97 67 61 74 98 91 96 100 100 100 100 90 95 100 100 100 100 100
35 30 50 78 92 92 85 94 94 96 99 100 100 100 92 97 96 91 71 77 100 100 91 100 100 100 100 100 100 97 100 100 100 100 100 100 100 100 100 100 100 99 100 96
31 38 61 79 92 92 93 97 96 94 100 99 99 100 100 98 97 96 68 90 100 100 100 100 100 100 100 100 100 96 100 100 100 100 100 100 100 100 100 100 100 100 100 100
38 46 60 69 74 84 74 76 85 92 98 97 99 100 100 97 94 90 86 81 100 100 100 100 100 100 100 97 100 100 100 100 96 100 100 100 100 100 100 100 100 94 94 100
47 49 60 68 68 63 79 91 95 93 91 99 100 100 93 88 90 93 100 63 100 100 100 100 100 100 100 100 98 100 100 100 100 100 100 100 100 100 100 100 100 100 100 100
37 37 45 57 57 59 64 76 90 93 94 94 95 84 87 90 85 95 100 99 81 100 100 94 100 100 100 100 100 100 100 100 100 100 100 94 78 91 100 100 100 100 100 100
36 38 50 58 60 50 56 60 74 86 93 87 82 84 86 82 77 85 100 100 81 99 99 87 100 100 100 88 100 99 100 100 100 100 100 100 95 100 100 100 100 100 100 100
35 40 49 60 65 64 70 74 78 80 84 88 92 80 69 72 73 73 85 100 100 71 100 95 84 92 100 100 97 100 100 100 100 100 90 100 100 100 100 100 100 100 100 100
37 39 42 52 55 56 68 72 71 70 66 65 64 68 73 69 67 67 80 100 100 100 67 96 95 95 100 100 100 100 98 100 100 100 100 100 100 100 100 100 100 100 100 100
39 41 51 55 59 58 60 66 64 60 57 58 56 56 59 62 52 60 67 95 100 100 95 63 85 86 100 100 100 100 100 99 100 95 100 100 100 100 100 100 100 100 100 100

GFSCGP_250_rhum_099.txt.gz
RH
9 9 8 14 22 26 37 46 68 73 77 82 69 100 88 97 93 75 90 87 100 100 63 46 40 52 75 92 70 65 49 47 49 81 100 96 94 50 40 36 39 30 16 32
5 6 10 14 19 20 26 38 41 51 66 76 87 100 100 91 89 87 99 100 100 100 86 83 49 52 54 59 55 48 45 39 42 34 56 73 63 53 41 37 41 27 17 58
4 6 8 8 12 21 23 29 39 40 61 70 96 99 100 100 100 100 100 100 100 81 72 70 75 55 52 49 58 51 38 41 38 32 33 35 48 62 46 39 42 24 16 82
4 5 6 8 8 15 24 33 37 43 47 80 75 100 100 100 100 94 100 100 100 100 82 50 52 59 50 50 62 80 68 51 42 34 32 34 56 63 51 42 44 26 17 100
6 6 6 7 10 13 27 40 41 42 52 66 62 85 100 100 100 100 100 100 100 100 85 77 72 64 62 58 65 64 57 59 53 36 36 44 58 59 54 43 46 27 49 100
7 6 7 7 9 12 16 29 41 47 46 54 63 72 100 100 100 100 100 100 100 100 100 100 100 88 78 76 75 70 71 68 54 48 41 52 66 59 49 47 46 34 82 100
8 7 9 9 13 16 18 23 37 48 50 58 68 98 100 100 100 100 100 100 100 100 93 98 86 88 91 94 88 88 76 72 59 51 48 56 82 59 52 50 47 32 96 100
9 9 10 14 17 22 29 39 53 58 63 67 74 92 100 95 100 100 100 100 100 100 100 95 100 100 99 89 92 86 75 80 60 51 56 66 80 61 51 52 47 34 67 100
9 10 13 19 28 48 46 49 74 82 100 100 100 100 100 100 100 100 100 100 96 100 98 90 100 100 100 95 91 91 79 70 60 50 73 79 94 68 50 54 49 38 39 100
12 14 16 25 45 56 74 100 86 78 100 100 100 98 100 100 100 100 99 95 90 97 100 100 100 97 92 90 92 96 87 70 62 60 75 85 94 78 56 55 51 46 41 48
17 31 43 67 72 90 89 100 100 100 98 99 90 92 100 99 97 92 89 88 95 99 95 96 100 93 80 93 100 92 79 73 73 77 86 100 99 64 56 58 52 56 44 36
55 69 96 82 93 96 100 100 100 100 100 100 100 100 100 100 98 94 89 88 85 89 93 96 97 92 98 100 100 92 88 99 93 71 65 63 73 55 50 59 59 51 59 37
82 100 100 98 100 99 100 100 100 100 100 100 100 100 100 100 100 100 100 100 97 98 88 98 99 100 100 97 98 88 78 73 78 80 74 64 69 69 51 60 63 59 57 67
100 100 100 100 100 99 100 100 100 100 100 100 100 100 100 100 100 95 95 97 98 96 89 84 86 85 80 77 70 64 50 55 61 61 61 63 67 62 55 61 65 66 64 64
100 100 100 100 100 100 97 99 99 100 100 100 100 100 100 99 98 96 94 96 92 80 68 65 62 56 51 49 46 45 50 53 58 55 54 58 77 92 76 66 62 70 73 72
100 100 100 100 100 100 100 100 100 100 100 100 100 89 100 100 99 91 89 85 79 73 59 46 48 59 54 55 50 48 47 42 41 43 52 66 95 90 91 77 60 71 74 80
98 100 100 100 100 100 100 100 100 100 100 99 100 99 95 93 96 85 76 68 65 58 58 65 95 72 78 71 59 54 42 30 34 44 57 87 100 100 99 78 64 75 75 75
65 90 99 100 100 96 100 100 100 100 100 100 100 92 93 94 86 85 86 85 75 55 74 100 92 89 100 98 96 52 33 29 30 52 66 82 100 100 100 98 96 82 90 87
59 68 70 90 92 96 97 98 96 94 98 100 100 100 98 87 88 87 88 83 67 66 100 100 100 100 91 100 100 99 67 60 49 64 84 86 88 100 100 100 100 100 100 100
42 48 43 72 90 89 100 100 100 100 99 100 100 100 95 90 92 94 93 96 74 97 100 100 94 100 100 100 100 100 97 62 62 82 100 100 97 100 86 100 100 100 100 100
36 36 36 60 79 88 95 96 96 100 98 96 93 93 92 92 95 99 98 94 75 88 100 87 100 100 100 100 93 100 100 94 100 100 100 100 100 99 91 100 100 100 100 100
51 53 48 57 80 97 99 95 94 91 96 97 90 90 95 98 99 98 100 89 82 79 100 79 100 100 100 100 100 100 100 96 86 91 100 95 78 100 99 97 100 100 100 100
56 52 52 46 48 61 80 88 88 77 80 77 80 89 96 99 98 99 97 90 94 64 100 72 98 100 100 100 100 100 100 100 100 100 96 97 100 91 100 100 100 100 100 100
46 42 38 35 37 37 40 52 60 63 69 74 79 87 91 96 100 97 91 89 90 71 100 93 88 100 100 100 100 100 100 100 100 100 99 100 100 100 99 100 99 100 100 100
38 38 37 35 32 35 41 44 50 58 69 73 76 79 81 81 79 82 83 80 82 84 63 100 78 98 100 100 100 100 100 100 100 92 98 74 100 100 100 100 100 93 98 100
38 37 38 38 36 33 36 38 40 48 54 69 79 82 83 80 78 76 76 72 68 72 79 65 100 74 91 87 91 100 100 100 100 100 100 98 74 100 98 100 100 100 100 100

GFSCGP_250_rhum_102.txt.gz
RH
13 8 8 12 12 12 14 17 21 24 29 79 100 82 100 97 91 69 52 48 73 76 64 97 80 57 58 54 71 64 54 66 47 43 35 37 36 42 35 28 36 92 46 34
7 7 8 9 10 10 12 13 15 15 21 34 86 87 100 95 90 75 67 48 92 78 76 94 74 66 94 100 73 62 38 41 42 42 39 38 37 33 31 28 31 49 43 35
4 5 5 5 6 6 8 11 15 16 23 27 37 61 66 88 93 83 71 74 87 86 79 66 65 62 100 100 100 98 84 58 49 46 44 45 44 40 39 30 34 52 45 37
4 5 5 5 5 5 6 8 14 20 22 29 30 44 46 61 95 99 100 95 96 100 89 71 84 100 100 100 100 96 100 76 52 63 53 58 52 46 48 39 42 63 48 38
4 5 6 6 6 6 7 9 13 16 22 32 28 37 43 56 95 93 100 100 100 100 100 100 100 100 100 100 100 88 68 63 56 63 58 63 60 60 57 38 51 52 52 39
5 4 5 8 8 7 7 7 11 14 20 26 32 33 42 54 83 96 100 100 100 100 100 100 100 100 100 100 100 100 96 93 68 77 72 74 81 69 57 42 51 54 51 42
4 6 7 8 9 7 6 9 11 13 20 35 36 42 46 55 82 79 82 92 100 100 100 100 100 100 100 100 100 100 100 99 87 85 95 90 83 79 62 45 54 60 49 45
5 6 10 10 10 10 9 10 13 20 29 43 49 49 44 54 59 63 58 70 94 100 100 100 100 100 100 100 100 100 98 99 100 96 93 96 91 82 66 48 55 63 49 45
7 8 11 11 10 10 11 13 16 23 34 50 79 68 62 68 76 51 62 69 85 100 100 100 100 100 100 100 100 100 100 100 100 100 99 94 88 86 67 51 60 60 50 45
11 12 13 12 12 13 18 21 27 28 39 88 93 91 95 98 98 65 82 88 82 92 100 100 100 100 100 100 100 100 100 100 100 100 100 93 92 91 70 54 53 62 53 48
13 13 13 15 18 29 38 57 52 62 59 90 64 92 100 95 96 81 73 73 93 100 100 100 100 100 100 100 100 100 100 100 100 100 88 80 83 98 72 67 77 73 49 50
19 18 20 25 45 80 100 100 100 100 100 100 100 100 100 100 100 97 100 99 96 88 90 84 100 100 98 100 100 100 100 100 100 93 78 87 100 91 72 78 100 99 50 52
47 40 46 46 75 80 100 100 100 100 100 100 100 100 100 100 100 100 69 84 100 100 100 100 99 100 100 100 100 100 100 99 97 78 74 93 100 90 86 69 76 82 56 48
47 69 84 95 100 100 100 100 100 100 100 100 100 100 100 100 100 95 80 77 84 81 86 91 93 94 98 96 96 98 98 87 91 84 97 100 100 100 100 100 78 67 54 44
75 98 100 100 100 100 100 100 100 100 100 100 100 100 100 100 95 95 91 98 99 100 100 100 100 100 98 93 89 99 100 91 99 100 100 100 98 97 79 98 100 86 61 52
99 100 100 100 100 100 100 100 100 100 100 100 100 100 100 92 100 100 100 100 100 100 100 100 100 100 100 94 100 100 90 98 100 94 94 93 92 84 59 76 100 73 69 55
98 100 100 98 100 100 100 100 100 100 100 100 100 100 100 100 100 100 100 100 100 99 86 100 96 89 92 83 73 71 65 60 63 65 65 61 58 55 50 93 100 81 72 78
100 98 100 98 100 99 94 99 100 100 100 100 100 100 100 100 100 97 75 73 72 95 92 72 67 65 62 58 56 60 78 65 59 52 47 54 59 67 73 96 100 74 92 97
83 92 100 90 95 100 100 100 100 100 96 94 100 100 100 94 83 79 71 97 100 89 79 74 69 71 65 98 86 100 100 99 79 63 39 43 53 76 70 89 100 87 100 100
89 88 83 86 90 93 99 100 100 100 100 94 100 100 100 100 84 82 96 84 86 90 82 76 69 67 96 100 100 100 100 91 100 100 67 42 35 52 76 83 92 100 100 99
46 87 71 72 79 82 88 92 94 97 100 100 97 94 93 100 100 100 94 90 93 97 92 76 65 75 100 97 100 100 100 100 100 100 100 94 65 80 98 94 100 83 82 92
43 40 54 53 76 96 93 96 98 95 99 98 99 98 99 97 96 92 90 92 94 94 91 73 68 94 100 100 93 100 100 100 98 100 100 100 100 86 100 89 100 100 100 100
54 55 53 49 44 66 84 90 97 99 100 100 97 95 93 94 93 92 91 89 87 89 97 78 70 100 100 100 99 100 100 100 100 100 100 100 100 100 100 100 100 100 100 100
55 57 57 53 52 70 100 100 100 99 100 100 99 98 95 96 99 98 91 83 87 91 97 79 70 99 100 100 100 100 100 100 100 100 100 100 100 100 95 100 100 100 100 100
50 52 48 44 42 42 58 88 98 98 94 92 96 99 98 98 90 86 77 86 90 86 88 77 62 87 100 100 100 100 100 100 100 100 100 100 100 99 100 100 100 100 100 100
42 47 42 34 34 36 40 42 43 44 47 54 62 73 75 65 68 76 78 89 92 85 79 75 62 68 97 91 100 100 100 98 100 100 100 100 100 100 100 99 100 100 100 100

GFSCGP_250_rhum_108.txt.gz
RH
34 27 21 9 7 7 6 6 6 8 10 12 13 13 14 16 22 19 20 22 21 24 34 59 92 87 100 85 47 87 86 70 60 56 58 73 62 54 48 48 43 36 34 38
18 9 6 5 6 5 6 5 5 6 9 10 10 11 11 12 16 18 20 22 23 27 45 43 90 74 90 80 58 52 96 78 74 64 48 46 51 61 66 64 56 41 42 43
8 6 5 4 3 3 3 4 4 6 8 7 8 7 8 10 12 16 19 23 30 38 51 46 38 70 92 81 72 56 94 97 95 100 75 42 54 84 100 100 79 57 48 47
5 3 3 2 2 2 3 3 3 4 5 6 8 8 9 11 11 14 20 29 29 25 21 29 32 67 100 92 79 64 70 100 100 100 76 49 68 100 100 100 100 84 57 54
3 2 2 2 2 2 2 3 4 4 4 6 8 8 10 10 13 17 24 20 23 21 17 18 34 42 96 97 80 70 85 100 100 100 100 97 73 99 100 100 100 83 65 74
3 2 2 2 2 3 4 4 4 5 5 6 7 8 9 12 15 17 21 25 25 19 16 19 36 39 97 100 93 79 90 100 100 100 98 100 90 95 96 100 100 74 96 98
4 3 3 4 3 3 3 4 5 6 8 7 7 8 11 14 17 20 23 29 31 24 20 29 34 49 100 100 91 89 82 83 100 100 100 100 100 100 100 100 100 83 89 100
4 3 5 5 5 6 5 5 6 8 8 9 10 11 13 17 24 28 30 34 34 30 30 36 35 56 100 100 100 100 90 79 100 100 100 100 100 85 91 68 100 100 100 100
6 6 7 7 6 7 7 8 9 9 10 13 13 12 16 18 34 100 100 49 44 36 39 48 48 83 100 100 100 79 86 100 96 100 100 100 100 97 67 62 99 100 100 100
7 8 10 11 10 10 12 13 13 13 16 14 14 14 26 58 30 48 100 73 39 40 44 55 61 100 100 100 80 85 81 86 100 80 80 100 100 85 63 88 100 100 100 100
11 14 13 15 14 17 16 13 15 15 20 23 32 29 33 45 90 64 100 78 41 47 52 53 55 88 100 100 100 99 88 100 100 100 100 100 99 65 64 86 100 100 100 100
12 16 19 17 19 19 18 20 20 27 73 72 54 57 51 68 76 100 100 100 100 100 100 80 59 56 90 100 98 86 93 93 95 100 100 100 100 83 82 100 100 100 100 100
18 19 19 20 21 21 24 35 48 75 100 100 94 93 82 76 95 100 100 100 100 94 89 73 66 60 56 66 73 75 77 83 100 94 93 80 84 80 81 93 99 100 95 100
21 22 22 24 31 27 35 42 61 100 100 100 100 100 100 100 100 100 100 100 100 100 100 100 83 65 61 57 64 76 71 80 98 96 99 90 66 85 83 63 74 74 71 97
27 30 30 28 63 78 65 99 97 100 100 100 100 100 99 100 100 100 100 100 100 100 93 84 100 100 87 77 73 79 87 87 72 94 89 88 100 100 100 94 85 78 91 89
33 45 52 57 70 85 100 99 100 100 100 100 100 100 100 100 100 100 100 100 100 80 55 69 74 88 100 93 84 88 86 93 89 84 94 100 90 100 100 100 100 83 81 93
51 58 80 81 96 99 100 99 100 100 98 100 92 95 92 90 99 100 98 89 79 90 88 92 80 83 88 88 94 93 100 98 95 90 84 88 91 87 92 98 100 92 100 100
72 91 96 86 88 69 95 96 100 100 100 99 88 100 100 93 88 85 91 99 100 100 100 100 100 98 84 90 96 86 91 94 100 97 92 85 82 83 82 84 78 71 72 82
61 96 99 86 89 97 97 100 100 99 93 94 100 100 98 97 100 100 100 100 100 100 100 100 100 99 100 100 100 100 100 100 100 100 100 100 99 83 84 96 92 100 100 94
59 91 97 98 71 73 86 90 100 100 100 100 100 100 100 99 88 100 100 100 100 100 99 100 100 100 100 100 100 95 100 100 100 100 83 92 88 86 100 100 98 84 100 100
65 66 92 95 82 47 58 78 82 99 100 100 100 100 100 100 100 93 96 93 82 94 100 91 100 91 82 85 93 98 93 86 77 75 72 72 64 66 77 85 98 100 100 100
60 69 80 96 98 98 77 76 79 76 84 91 88 82 98 100 100 100 100 96 88 79 83 92 88 76 76 72 74 74 69 71 66 68 63 64 74 75 92 89 100 99 100 100
53 72 68 80 96 98 94 79 75 84 78 83 85 90 78 79 86 95 100 99 100 99 96 87 92 86 80 78 78 74 71 68 71 80 82 75 73 75 100 86 85 100 100 100
37 51 65 73 68 78 99 100 98 90 96 94 92 93 90 93 99 95 92 94 91 88 87 89 92 98 98 99 92 87 80 84 75 66 80 78 82 100 100 100 100 100 100 80
34 41 58 67 65 67 66 82 98 100 100 96 96 92 87 86 85 82 80 77 73 75 79 84 87 87 86 78 70 71 72 74 76 69 66 70 79 100 100 100 100 100 100 100
29 34 43 59 61 62 58 54 62 79 97 100 100 99 97 93 95 94 90 85 80 74 72 71 70 68 69 70 70 70 70 69 66 66 64 66 68 100 100 100 100 98 93 100

GFSCGP_250_rhum_111.txt.gz
RH
47 30 29 21 27 28 18 11 10 8 8 8 8 8 7 14 18 24 31 41 42 36 36 33 32 36 36 52 66 97 72 72 50 50 61 56 62 61 68 71 64 60 42 41
31 23 26 30 19 11 7 6 5 5 5 4 5 4 6 8 10 16 24 31 33 36 36 30 28 28 33 32 38 86 66 61 70 52 71 64 68 82 65 63 66 49 44 52
23 26 32 13 7 5 5 4 4 3 3 3 3 4 5 7 8 12 20 26 30 28 26 26 24 24 20 24 32 57 88 64 83 72 81 79 70 81 76 68 56 49 67 76
27 25 8 6 6 4 3 2 2 2 2 2 2 3 4 6 8 10 16 19 23 27 26 25 23 17 17 25 41 50 87 100 96 85 97 88 84 63 61 81 71 79 88 89
26 8 7 4 3 2 2 2 2 2 2 3 3 4 4 6 8 9 13 15 18 22 22 20 20 16 18 22 35 71 93 100 100 89 84 100 86 60 70 74 74 89 82 98
13 9 5 4 3 2 2 2 3 2 3 3 3 4 5 7 9 11 12 13 16 18 16 14 16 16 19 21 31 62 100 100 100 89 88 94 83 88 100 100 100 100 100 100
13 8 4 3 3 3 3 3 3 3 4 4 4 5 6 8 12 13 14 17 18 17 16 17 18 18 18 21 28 42 100 100 100 100 100 87 100 91 100 97 82 100 100 100
11 7 5 5 5 5 5 5 4 5 5 5 6 7 8 9 11 13 16 18 20 20 21 20 20 18 18 24 35 45 97 100 100 100 98 93 100 100 100 100 90 100 100 100
9 6 6 7 8 7 8 7 7 6 7 9 10 12 14 14 14 17 20 22 23 24 24 24 22 21 20 24 33 50 68 100 100 100 100 98 100 100 100 100 100 100 100 100
8 9 12 11 10 9 9 10 10 9 8 12 14 14 28 30 36 34 31 70 36 34 29 29 30 24 24 27 34 55 54 100 100 100 100 100 100 100 100 94 100 100 95 86
8 15 18 18 14 14 12 13 12 14 13 14 14 13 30 61 100 100 100 100 100 74 42 37 41 41 37 37 38 50 56 100 100 100 100 100 100 100 100 64 55 49 58 92
10 17 20 21 18 15 17 18 16 18 20 22 23 21 39 48 92 100 100 100 100 98 50 69 94 52 44 42 45 53 61 96 100 100 100 100 100 100 100 92 72 71 75 76
17 21 26 23 22 21 22 21 20 26 28 32 34 39 59 100 100 100 100 100 100 100 78 81 61 48 42 44 50 58 64 96 100 100 83 88 85 100 100 100 94 84 82 79
24 29 31 28 25 27 27 30 24 29 54 62 69 85 90 88 98 98 100 99 100 99 100 88 89 82 53 53 45 47 57 90 100 100 100 100 100 97 99 100 100 100 100 100
29 37 34 34 36 36 36 37 57 41 65 71 96 100 100 100 100 100 100 100 100 100 100 100 100 100 100 100 79 59 66 91 100 100 95 91 98 97 99 100 100 99 96 86
30 40 43 49 38 43 51 67 82 87 80 90 81 89 100 100 100 100 100 100 100 100 100 100 100 100 100 100 89 70 61 64 83 98 100 100 100 89 77 94 100 100 100 77
32 47 68 71 63 82 74 100 93 94 85 83 100 100 78 100 100 96 100 100 100 100 100 100 100 100 100 100 100 100 99 72 64 63 67 72 71 74 76 68 69 88 99 76
32 55 71 78 90 100 99 100 78 76 85 96 100 100 100 82 99 90 100 100 99 100 95 77 76 82 85 86 92 94 92 89 75 62 52 54 60 60 69 70 69 80 75 94
29 63 86 92 90 88 70 89 92 83 91 100 100 100 100 100 83 85 100 100 100 100 87 94 98 100 100 100 100 100 98 96 92 84 82 72 84 88 91 86 66 72 80 100
32 59 84 86 93 91 76 76 84 81 80 90 95 100 99 93 88 97 89 100 100 100 100 100 86 100 100 100 100 100 100 100 100 92 92 90 91 96 97 99 99 97 96 94
31 50 74 86 91 98 84 81 86 96 92 84 84 90 98 91 98 100 89 96 99 100 100 100 100 72 80 92 89 100 100 100 100 100 100 100 100 100 100 100 100 100 95 98
26 54 71 89 87 90 95 98 90 96 100 87 78 89 83 94 94 81 80 96 90 76 99 98 100 100 100 96 96 100 100 100 100 99 93 92 96 100 97 100 100 94 81 85
25 45 86 90 100 91 88 88 93 99 97 100 94 90 98 100 99 100 100 90 64 80 86 86 78 81 77 98 88 70 71 71 81 77 80 86 83 77 67 62 59 61 65 65
26 38 65 85 92 96 96 89 90 88 83 98 100 100 100 100 100 100 93 100 98 88 85 90 80 82 83 78 78 78 70 66 60 61 63 65 62 63 68 76 75 78 74 74
23 30 45 74 78 88 92 91 98 94 89 85 86 98 98 96 94 91 88 86 88 93 90 86 78 70 70 75 72 67 68 69 70 71 70 73 81 88 82 78 82 80 85 87
22 25 29 35 55 68 73 80 91 99 91 87 81 79 79 77 77 77 80 81 80 78 73 73 77 78 82 85 77 74 76 81 84 88 91 93 88 76 68 65 61 70 75 83

GFSCGP_250_rhum_114.txt.gz
RH
57 65 56 50 44 34 29 30 27 24 17 10 12 9 8 8 10 10 14 17 23 27 30 34 37 51 50 51 48 44 42 35 47 88 100 63 61 47 50 45 47 48 66 83
53 44 48 40 34 33 34 23 15 10 7 5 4 5 4 5 5 6 8 12 20 23 28 28 28 34 47 46 43 49 52 36 39 71 100 92 59 64 59 48 53 74 73 83
56 54 44 30 35 27 14 9 6 5 5 4 3 3 3 3 4 5 5 9 16 27 24 31 25 27 34 43 44 48 40 43 40 64 86 100 71 75 84 72 63 81 65 68
58 48 37 39 26 10 6 6 5 4 3 2 2 2 2 2 2 3 4 6 9 14 19 30 20 22 27 35 39 45 38 38 34 46 61 100 88 71 100 88 75 67 77 60
45 43 39 26 10 8 6 4 3 2 2 2 2 2 2 2 2 2 3 5 7 11 13 17 17 18 25 33 32 35 43 57 61 60 56 100 100 64 93 100 72 63 84 70
42 36 28 12 10 7 4 4 3 3 3 3 2 2 2 2 2 3 3 4 7 9 12 13 14 15 18 26 28 32 45 44 65 60 82 100 100 70 72 90 93 65 84 88
42 34 17 12 10 6 4 4 4 4 4 4 4 4 4 4 4 4 4 5 6 9 10 11 14 14 15 19 25 31 47 40 47 65 85 100 100 89 79 67 91 100 100 100
34 29 17 14 8 5 5 7 7 7 7 7 6 6 6 6 6 6 7 8 10 11 12 12 12 14 16 22 26 31 47 35 38 52 67 100 100 100 97 64 95 100 91 100
36 18 18 11 7 6 8 11 10 9 8 7 6 6 7 9 10 11 12 14 14 15 16 15 14 14 18 21 23 30 36 31 40 55 63 93 100 100 100 79 74 94 79 83
31 23 19 10 8 10 13 15 13 11 9 8 7 8 8 12 16 15 16 21 23 22 20 19 19 20 21 22 26 32 33 28 34 60 77 92 100 100 100 82 82 85 91 97
25 26 16 10 10 16 18 19 16 14 13 11 10 12 14 19 26 46 58 27 30 31 27 24 26 33 32 30 28 32 34 31 34 37 50 78 100 100 100 99 83 70 76 96
26 25 14 11 17 22 22 23 19 17 15 14 16 17 25 32 50 61 49 49 64 58 41 30 29 30 38 37 33 30 32 31 31 32 43 58 100 100 100 100 100 100 86 89
31 21 14 16 23 25 26 24 19 17 18 19 29 41 67 76 74 100 100 100 100 100 70 39 48 54 60 100 60 38 31 34 34 36 44 58 85 100 100 100 100 100 74 74
32 19 15 27 41 40 33 28 22 22 28 40 71 82 94 88 94 100 100 100 100 100 68 89 100 100 80 90 70 48 42 42 45 45 46 54 62 100 100 100 100 100 100 90
32 18 15 38 54 50 45 36 26 39 44 68 98 100 100 100 100 75 100 100 100 90 100 98 100 100 88 100 80 53 50 47 49 51 54 62 72 91 100 100 100 100 100 100
31 18 19 49 64 68 68 51 38 62 64 90 99 100 100 98 100 100 100 99 100 100 100 100 98 98 100 100 91 71 58 48 52 55 55 61 59 98 100 100 100 100 100 100
30 20 24 72 83 87 79 71 49 57 70 90 96 100 100 100 100 100 100 100 100 100 100 98 100 100 100 100 100 100 100 100 77 58 51 56 61 97 100 100 100 100 100 100
29 23 25 65 84 99 94 88 73 75 80 79 77 100 99 99 98 100 100 100 100 100 94 100 100 100 100 100 98 100 100 93 72 57 52 51 56 70 95 100 100 100 100 100
28 26 26 54 87 94 100 92 76 88 89 86 75 76 100 99 100 100 100 100 100 100 100 100 100 100 100 100 100 100 100 90 77 63 56 52 52 56 73 86 93 100 99 100
26 26 27 41 92 100 90 75 60 53 93 75 79 77 75 100 100 100 100 100 79 92 92 100 100 100 100 82 88 94 92 99 85 94 100 81 75 68 62 58 58 62 66 69
25 25 29 32 68 100 97 98 91 75 75 90 88 90 81 72 65 66 85 85 89 77 94 97 99 89 85 99 96 84 86 100 100 99 98 94 86 78 82 92 93 88 77 71
23 25 29 39 74 95 99 92 91 98 90 74 94 79 84 93 99 78 69 90 96 100 92 86 79 80 81 71 74 87 81 96 100 100 94 92 100 100 98 92 87 87 92 96
22 23 26 31 56 98 100 97 100 100 100 100 89 98 96 85 91 92 88 100 100 100 100 97 95 98 100 100 94 78 75 84 99 91 100 100 100 100 100 100 100 100 100 100
18 21 24 31 45 85 100 100 100 100 100 100 100 100 98 95 98 97 98 96 83 72 82 80 80 85 81 79 90 87 73 72 74 72 74 80 80 97 100 100 97 88 86 91
16 20 21 27 38 51 83 100 100 100 100 100 98 99 100 100 96 95 99 93 81 68 66 72 81 88 75 81 90 99 100 97 81 98 90 91 84 72 72 78 80 76 74 75
15 18 21 23 30 36 50 81 99 99 100 100 100 100 99 97 94 98 88 85 85 94 99 96 93 91 78 83 88 81 80 84 83 73 71 72 70 67 66 60 59 64 64 66

GFSCGP_250_rhum_117.txt.gz
RH
44 40 34 34 40 44 42 39 34 31 28 23 22 13 17 13 16 10 9 7 9 18 28 36 45 58 54 48 48 48 62 67 75 95 65 54 45 46 81 91 81 70 60 45
40 37 37 46 48 41 36 30 28 19 13 11 10 9 8 7 6 8 8 9 10 10 19 26 33 36 41 44 38 42 46 72 90 95 73 55 54 73 72 90 100 80 79 51
42 41 49 49 47 36 32 28 19 10 8 6 5 5 4 4 4 4 4 5 6 9 13 18 22 27 31 31 32 33 40 55 85 84 40 59 57 85 93 100 100 98 83 65
48 56 61 51 42 36 31 21 12 8 7 6 5 4 2 2 2 2 2 2 3 4 6 12 16 22 26 26 27 32 36 46 74 63 82 100 94 94 100 100 100 100 96 77
51 61 63 50 46 33 24 15 10 9 6 4 3 3 2 2 2 2 2 2 2 2 4 7 11 17 22 23 21 30 36 38 61 62 100 89 91 100 100 100 100 100 100 76
59 57 48 48 34 25 14 12 10 6 5 5 4 4 3 3 2 2 2 2 2 2 3 4 7 12 16 18 19 34 46 39 45 52 60 65 51 65 98 100 100 100 100 81
53 46 46 41 28 17 13 13 7 8 6 5 6 6 5 4 4 3 3 2 2 2 3 4 6 8 11 15 17 30 47 61 58 58 51 49 46 45 54 82 100 100 100 94
55 54 50 42 22 17 16 9 9 8 10 11 10 9 7 6 5 4 4 3 3 3 4 4 6 8 10 12 18 28 42 47 66 71 65 48 48 51 47 56 56 75 100 100
54 64 43 33 20 18 12 10 10 12 13 14 11 10 9 7 6 5 5 5 4 5 5 5 7 9 10 14 22 33 46 64 87 88 92 66 46 48 70 68 70 47 90 100
53 53 42 26 20 18 11 12 13 14 19 18 16 14 12 8 7 9 9 8 7 8 8 8 10 11 12 14 18 27 42 56 56 63 69 67 46 54 55 63 62 52 84 85
53 49 35 24 23 15 13 14 16 18 20 25 22 16 17 18 15 16 16 19 13 15 13 12 13 16 18 17 20 24 31 41 54 67 61 56 46 56 80 72 79 65 98 99
59 50 33 27 22 13 14 18 22 20 26 36 37 34 37 36 29 33 34 33 26 21 21 19 18 18 21 25 26 29 36 42 42 43 44 51 46 60 75 66 83 86 96 100
66 43 42 33 20 12 15 24 25 25 51 57 58 52 51 64 66 56 46 37 37 27 28 30 30 30 29 32 36 40 42 42 42 44 46 45 50 65 75 57 78 80 76 87
62 44 44 37 21 14 21 30 30 30 85 84 66 68 91 77 69 72 61 45 46 86 51 62 55 57 45 46 46 53 76 85 80 54 47 46 45 52 51 50 80 82 83 79
50 46 45 36 21 17 25 41 36 33 92 99 90 89 93 93 79 92 97 80 60 100 100 100 100 100 100 100 97 98 88 97 66 52 52 44 42 42 39 43 48 70 84 83
47 45 46 33 24 23 30 45 49 43 99 100 100 100 90 100 99 100 100 100 76 91 100 100 100 100 100 100 100 100 100 94 74 52 45 43 39 38 41 40 41 42 64 99
46 49 45 34 28 31 46 56 70 65 83 98 100 100 100 93 100 100 100 100 100 99 98 100 90 99 100 100 100 100 100 100 93 93 81 52 39 36 40 42 47 58 67 80
50 46 42 34 33 33 58 68 91 78 76 96 100 100 100 100 100 100 100 100 100 100 100 100 100 100 99 100 100 100 100 100 100 100 97 79 67 61 57 56 58 69 75 72
53 45 42 30 33 39 59 86 92 97 90 84 90 100 100 100 100 99 96 100 100 100 100 100 100 100 100 100 86 100 100 100 100 96 95 90 74 74 68 64 60 62 71 75
52 48 36 26 32 37 62 81 92 79 87 84 92 91 96 100 91 100 100 94 100 100 100 100 100 100 100 100 100 100 100 100 100 100 100 100 93 83 63 76 73 57 55 62
52 41 27 25 29 40 62 85 84 63 71 92 91 95 89 97 100 100 100 100 100 100 100 95 100 100 100 100 98 100 98 100 100 100 100 100 98 91 86 83 68 66 60 58
42 27 20 22 26 31 60 71 89 67 82 95 94 95 98 95 97 100 100 100 100 100 100 100 86 98 100 100 99 97 100 96 99 100 96 100 100 99 99 98 92 87 82 82
24 20 19 19 24 28 44 87 93 88 74 88 100 100 100 100 97 98 94 97 100 97 98 100 100 97 96 82 92 80 83 83 78 79 73 76 78 71 67 74 81 78 82 78
17 17 18 16 21 26 33 64 100 99 90 94 100 100 96 100 100 96 91 86 90 84 77 78 86 87 85 85 90 93 83 71 66 67 67 63 62 66 99 92 76 79 80 82
14 14 15 15 17 24 30 55 73 88 86 96 98 100 97 96 92 89 95 95 97 99 98 94 87 83 75 81 77 76 79 76 78 79 87 85 81 84 85 90 100 98 100 100
13 13 14 16 17 22 30 39 64 78 83 97 100 100 96 93 93 92 91 88 87 86 88 86 90 81 77 74 72 68 62 63 65 68 78 81 80 83 76 66 70 81 81 95

GFSCGP_250_rhum_120.txt.gz
RH
41 45 50 47 49 49 45 39 37 35 33 34 33 31 22 26 26 15 16 15 14 14 21 23 41 56 65 67 56 47 49 100 100 100 89 98 73 62 50 44 55 55 63 100
51 46 46 46 45 43 42 39 35 37 37 31 24 18 13 11 10 9 9 8 8 7 8 12 21 26 38 50 39 47 50 70 100 100 99 82 75 57 38 39 48 58 50 65
60 52 50 49 43 47 44 40 40 32 25 23 12 11 10 9 7 6 6 6 7 7 8 8 9 14 22 36 43 38 55 53 79 100 100 86 75 51 56 59 80 67 60 62
68 54 52 51 47 49 44 44 34 27 21 16 11 8 6 6 5 4 4 3 3 3 4 4 5 8 14 21 28 31 46 50 52 99 91 73 56 68 80 37 40 61 63 74
70 61 58 50 50 44 41 34 30 23 17 10 8 8 6 4 3 4 3 3 2 2 2 2 3 5 8 14 20 22 27 37 44 85 71 58 48 54 52 45 42 85 88 90
73 64 60 56 47 42 34 30 24 16 12 11 10 6 6 6 5 4 4 3 3 2 2 2 2 3 5 10 16 20 25 28 35 53 51 45 68 92 100 98 68 100 100 98
76 70 60 59 47 41 32 25 17 17 14 10 8 9 8 8 7 6 6 5 4 3 2 2 2 2 3 6 12 16 23 24 32 45 65 53 68 100 100 100 100 92 100 91
82 73 68 56 51 40 32 18 17 20 12 10 13 16 21 16 13 10 8 6 5 4 3 3 2 2 3 4 7 14 20 23 31 53 83 63 71 100 100 100 100 100 87 72
77 73 58 60 50 37 26 23 22 15 10 17 19 27 40 29 24 13 10 8 6 4 4 3 3 3 3 4 8 20 24 28 28 35 48 65 77 100 100 100 100 100 81 54
72 69 56 58 44 33 26 28 21 11 17 20 51 71 80 61 35 18 13 9 8 6 5 4 4 4 4 4 8 17 26 27 32 45 61 56 87 100 100 100 97 82 64 62
68 66 74 47 36 32 31 29 15 12 21 24 59 86 69 75 41 33 25 15 10 10 7 6 5 5 6 6 9 16 18 26 33 41 55 86 76 82 100 86 68 51 55 64
64 76 57 45 38 33 31 28 14 18 27 64 76 89 92 61 62 50 43 28 16 14 12 10 9 9 9 10 10 16 13 24 28 47 58 88 94 99 100 100 85 63 51 56
76 65 54 50 39 32 30 24 17 28 56 87 96 100 76 79 80 79 63 45 34 25 22 24 22 17 17 17 20 19 22 54 68 67 72 98 100 100 100 99 80 67 68 64
83 58 57 68 44 37 32 23 21 34 85 100 100 100 92 92 85 83 85 61 58 36 50 54 39 35 32 27 26 28 29 32 40 46 62 80 97 96 100 100 79 80 52 54
64 65 68 77 52 40 36 25 23 38 99 100 100 100 100 96 91 99 98 89 65 65 79 89 99 100 65 40 37 36 37 40 42 46 53 61 77 85 98 99 84 62 66 60
81 83 85 67 54 44 38 28 28 40 84 100 100 100 99 98 98 99 83 98 99 100 100 100 100 100 100 100 90 80 86 64 69 80 81 85 84 75 64 63 62 63 57 46
94 92 83 62 54 50 43 31 26 54 66 95 100 100 97 99 100 100 99 98 100 100 100 100 100 100 100 100 100 100 100 100 100 100 100 100 92 85 80 71 56 47 45 40
86 100 88 60 53 54 44 34 34 51 71 94 100 100 100 100 96 100 100 100 93 100 99 100 100 100 100 100 100 100 100 100 100 100 98 100 99 99 84 75 64 51 43 44
98 94 78 63 57 50 47 32 43 42 67 89 100 100 98 100 92 100 100 100 100 95 96 94 93 100 100 100 100 100 100 100 100 100 89 91 100 99 95 86 72 59 48 44
95 76 68 59 56 52 38 32 42 55 68 72 87 98 100 97 100 92 100 100 100 100 100 100 100 92 90 83 90 94 91 100 100 100 100 100 100 100 100 98 96 87 80 60
92 73 59 52 53 46 33 28 31 51 57 53 71 89 99 100 100 98 91 100 100 100 99 100 100 99 100 100 100 100 100 100 100 100 100 100 100 100 100 100 100 100 100 99
80 64 53 45 39 35 27 27 28 35 68 49 58 77 83 96 100 100 100 99 95 95 98 91 96 100 100 100 88 91 86 100 91 100 100 100 100 100 100 100 100 100 100 98
73 55 51 34 25 23 23 25 26 32 47 58 41 67 85 93 91 100 97 100 100 100 100 100 100 100 100 97 91 86 79 100 93 89 83 98 97 91 100 100 100 100 100 100
57 48 33 22 18 18 21 24 30 31 38 56 56 56 83 98 98 94 96 100 100 99 99 100 98 98 100 96 83 81 95 84 77 75 77 69 74 84 91 83 92 100 98 100
53 37 20 16 14 16 19 22 28 35 45 52 62 67 84 90 99 98 99 96 97 97 98 99 100 95 98 100 100 99 98 100 95 89 98 92 93 80 75 70 72 86 90 74
42 22 15 14 14 15 19 22 26 33 46 65 74 76 72 74 79 88 96 91 91 88 83 86 80 85 82 83 91 94 98 81 78 87 74 66 66 67 74 67 66 63 61 61

GFSCGP_250_rhum_123.txt.gz
RH
82 70 58 48 42 44 44 40 34 37 38 36 32 30 27 25 18 17 15 15 14 13 14 16 18 24 33 31 49 55 64 64 99 100 100 100 100 100 100 100 90 64 55 40
77 73 71 57 48 46 45 37 39 41 35 32 29 27 23 19 15 15 14 15 15 15 16 17 17 19 22 25 27 33 24 55 68 96 93 99 100 100 100 100 88 76 71 46
74 69 75 62 51 47 48 39 42 41 37 36 27 27 19 17 14 12 10 10 11 10 10 10 9 8 9 14 22 28 34 45 57 64 90 61 82 94 100 100 99 100 75 56
64 77 80 72 62 48 42 40 43 43 40 34 32 21 22 14 11 9 7 7 6 6 6 6 6 6 7 8 9 16 32 22 31 41 57 74 62 79 68 99 84 83 82 62
89 80 84 87 61 55 46 44 48 48 42 32 28 18 12 12 11 8 6 5 4 4 4 3 3 3 3 4 5 8 16 29 23 28 42 69 63 82 78 46 39 42 59 48
95 87 92 93 80 55 47 49 55 46 38 31 21 16 15 13 9 7 6 5 5 4 4 3 3 2 2 2 2 4 8 19 17 23 36 52 50 80 60 45 42 39 51 71
100 92 98 92 84 63 51 59 50 41 36 31 21 19 14 9 9 9 10 9 5 5 4 4 3 3 2 2 2 2 4 10 14 18 36 57 74 71 70 63 80 97 99 100
100 100 89 90 90 74 56 62 45 34 34 24 21 17 12 11 14 14 15 13 10 7 6 5 3 3 2 2 2 2 3 6 12 18 34 43 52 55 66 92 100 100 100 100
100 100 100 88 83 68 62 56 47 36 27 21 20 12 14 17 31 28 24 22 17 9 7 6 4 4 3 3 2 2 3 5 14 24 27 47 59 71 84 100 100 100 100 100
100 100 100 93 78 67 70 52 46 33 24 25 15 14 21 31 50 50 45 26 19 12 9 7 5 4 3 3 3 3 4 6 17 28 48 60 81 84 91 100 100 100 100 100
100 100 96 84 74 74 55 60 42 34 25 19 16 21 35 63 67 86 74 42 29 21 13 11 6 4 4 4 6 5 4 7 19 34 69 81 90 89 98 100 100 100 100 100
100 100 89 76 74 65 68 55 33 35 28 20 19 30 39 72 88 99 79 65 40 23 19 12 8 6 5 5 5 6 7 11 20 35 70 87 100 100 100 100 100 100 100 99
100 100 95 76 73 74 66 43 34 39 27 28 24 47 64 79 90 96 91 73 55 35 19 14 12 10 8 6 6 12 13 16 52 58 41 82 100 100 100 100 100 100 100 100
100 96 81 97 87 78 56 42 43 40 28 35 41 65 82 92 97 100 99 84 80 49 34 27 24 20 17 10 9 15 41 92 100 100 58 40 72 95 100 100 100 100 100 100
91 97 91 100 94 66 58 56 48 46 31 43 60 84 98 93 100 94 100 98 100 64 45 52 29 39 35 25 23 21 23 71 95 100 92 61 55 55 95 100 100 100 100 100
97 100 100 98 84 63 66 71 55 51 37 47 73 100 100 96 100 98 100 100 95 97 74 100 99 70 55 52 36 52 40 40 79 92 95 79 54 45 50 49 59 73 78 79
100 100 100 96 74 72 75 66 56 54 44 36 82 100 100 100 99 99 98 98 98 97 100 100 100 100 100 97 83 46 42 68 68 88 87 97 86 65 61 64 67 59 58 72
100 100 100 98 80 73 84 62 58 59 49 33 55 81 100 100 100 99 96 97 100 92 100 100 96 100 100 100 100 95 85 90 85 94 88 91 84 75 65 57 64 67 69 66
100 100 95 99 72 77 92 70 59 56 52 35 44 80 93 100 100 98 98 78 100 98 90 99 87 100 100 100 95 99 100 99 89 85 87 90 95 95 90 81 66 57 63 65
100 99 100 83 77 80 91 70 59 57 50 38 30 67 89 92 97 100 96 100 86 90 100 91 94 100 100 100 100 100 100 100 100 90 100 98 85 95 90 87 84 82 74 74
94 100 100 86 86 83 86 62 55 51 47 37 33 34 72 91 93 100 100 99 99 100 91 98 92 98 96 100 100 100 100 100 100 100 100 100 100 100 87 81 90 92 96 98
100 100 94 87 84 73 58 52 49 44 34 32 32 30 46 90 98 100 100 99 100 98 100 100 97 95 92 92 86 97 84 88 94 98 100 100 100 100 100 100 100 100 100 97
100 94 85 85 69 55 50 46 41 32 27 28 30 30 33 61 89 100 100 100 100 93 92 98 100 100 100 100 99 91 96 100 100 93 90 85 98 100 100 100 100 89 100 100
98 89 85 67 53 48 40 31 24 21 21 24 28 29 30 38 65 89 100 100 99 100 100 95 95 94 98 100 100 100 100 100 98 86 74 73 74 75 79 99 100 100 100 100
92 88 70 60 51 42 26 18 16 17 19 22 27 29 30 40 44 72 88 99 100 100 99 99 99 100 98 100 100 100 100 100 100 100 100 97 96 97 85 88 67 71 83 97
85 66 59 54 44 25 16 14 14 16 18 22 26 30 39 44 48 60 59 74 86 94 98 100 100 100 99 98 98 91 97 100 99 98 100 100 100 99 98 96 88 79 72 75

GFSCGP_250_rhum_126.txt.gz
RH
54 54 49 56 49 56 54 57 58 48 41 34 31 33 34 30 23 26 25 23 21 21 20 19 19 18 19 22 26 26 30 33 36 50 50 90 99 66 93 100 100 100 100 86
87 78 70 62 58 54 50 50 49 50 43 35 31 31 33 29 24 27 28 23 20 17 16 16 14 13 12 14 18 24 24 26 29 33 34 41 66 90 72 100 100 100 100 100
78 100 100 99 79 55 59 66 54 57 55 43 38 32 36 22 22 21 19 17 15 13 12 10 9 9 9 9 9 13 17 21 25 23 27 51 48 63 55 100 100 100 100 100
98 95 82 90 100 100 100 56 58 61 53 53 52 35 43 32 23 24 17 13 9 7 7 7 6 6 6 6 6 8 9 14 17 17 23 33 40 35 45 99 100 100 100 100
100 100 100 91 83 82 70 92 96 62 55 51 59 43 36 31 22 15 10 10 9 7 6 6 5 4 4 4 4 4 5 7 11 17 17 24 37 30 32 79 100 94 100 85
97 100 100 100 100 100 94 86 80 77 62 52 55 39 34 30 22 13 12 10 7 7 8 6 6 5 4 4 4 2 3 4 5 10 13 18 24 26 38 46 63 60 68 72
84 100 94 100 97 88 73 82 85 92 79 60 51 37 30 24 16 16 12 10 11 11 7 6 5 5 5 4 4 3 2 2 3 5 7 9 22 20 60 90 92 65 48 59
95 84 100 100 91 80 78 90 81 70 74 58 61 40 30 18 18 14 11 14 23 17 16 9 6 6 4 4 3 3 2 2 2 3 5 8 12 46 100 99 99 63 91 98
92 89 95 100 100 100 85 100 89 68 70 54 46 38 22 20 17 14 19 32 35 19 11 9 10 8 5 4 3 2 2 2 2 2 4 8 9 73 100 77 100 100 94 100
57 87 100 100 100 96 100 100 85 76 64 54 45 31 21 20 17 18 26 45 38 25 19 18 11 10 6 4 3 3 2 2 2 2 5 9 11 83 99 100 100 100 100 100
60 83 95 98 100 100 99 92 82 75 62 45 36 34 24 20 20 26 43 71 75 65 44 30 19 11 6 4 3 3 3 3 3 4 6 10 14 95 100 100 100 100 100 100
83 100 100 100 98 100 100 88 79 70 59 49 33 39 24 23 26 36 74 87 100 85 66 39 20 15 7 6 7 6 5 4 4 6 9 15 18 42 100 100 100 100 100 100
100 100 100 100 100 100 90 81 87 82 60 47 31 42 30 31 31 48 85 98 100 89 77 48 22 11 8 8 12 9 21 9 6 7 12 19 24 26 89 91 99 100 100 100
100 100 100 100 100 100 96 97 100 89 63 48 38 52 35 34 46 59 96 100 98 89 83 66 31 18 12 12 8 8 8 12 8 18 17 39 95 100 57 99 100 100 100 100
100 100 100 100 100 94 94 100 100 80 62 56 43 52 44 45 63 62 96 100 100 93 91 62 35 22 17 11 15 24 7 11 11 19 62 100 100 100 100 100 100 100 100 100
100 100 100 100 98 100 100 100 99 86 60 55 52 48 62 48 64 68 95 93 100 100 94 66 58 48 44 45 47 30 11 24 22 22 33 96 100 100 100 100 100 100 100 98
100 97 100 100 100 100 100 100 93 82 66 64 65 55 55 59 58 78 95 97 100 99 96 94 85 77 69 92 76 52 30 37 31 71 97 83 67 63 100 100 100 100 100 100
100 100 100 100 98 100 100 100 86 77 76 74 73 59 57 51 62 88 99 100 98 99 100 96 83 79 67 91 100 100 88 76 78 80 100 100 100 100 100 100 100 100 100 100
100 100 100 100 100 100 100 94 95 90 77 76 74 58 54 60 42 69 100 100 95 94 99 97 86 97 67 84 100 100 99 81 74 66 63 53 66 100 100 100 100 100 100 100
100 100 100 100 100 100 96 99 87 86 67 75 64 58 53 51 47 50 99 96 100 91 100 100 89 99 88 88 77 100 99 100 94 100 89 70 51 31 40 47 61 82 92 98
100 100 100 100 100 95 97 100 99 69 67 61 53 53 51 46 41 44 68 99 99 100 90 96 100 96 100 98 94 66 87 94 94 100 100 100 100 90 84 74 60 56 78 84
100 99 100 100 100 94 94 98 68 65 59 52 49 47 48 44 35 33 60 91 98 99 100 100 100 100 100 99 99 100 100 91 66 81 86 96 100 98 94 76 77 80 68 67
100 100 100 100 94 100 84 66 70 59 47 45 39 39 38 36 32 28 41 78 94 100 100 100 100 100 100 100 96 97 100 100 95 100 92 97 81 72 81 78 84 87 77 74
100 100 100 88 100 74 60 64 56 48 43 35 28 25 25 26 29 30 31 66 92 95 97 100 98 99 100 100 100 100 89 86 78 89 94 93 91 98 100 100 100 100 79 69
100 96 100 100 72 65 70 59 51 47 29 21 18 17 19 22 26 30 33 44 81 92 94 98 100 100 98 87 95 100 100 100 100 100 95 84 76 75 71 69 72 85 93 94
100 100 98 68 65 70 57 51 48 28 17 14 14 16 18 22 27 30 34 43 60 80 90 96 93 94 99 100 93 88 84 76 86 92 100 100 100 100 100 88 87 81 70 69

GFSCGP_250_rhum_129.txt.gz
RH
80 68 78 70 68 69 71 62 58 91 81 67 48 61 48 44 34 32 31 26 24 22 21 21 20 21 21 20 19 18 20 21 21 26 29 28 29 32 44 82 42 100 100 100
80 80 98 88 78 75 75 64 74 66 66 59 64 55 45 36 34 38 32 28 24 23 23 20 18 16 16 15 15 15 16 16 18 18 21 23 26 28 28 36 68 51 100 94
100 100 100 76 78 83 85 86 75 62 96 85 60 72 54 41 38 34 27 24 19 21 20 18 13 11 10 10 9 10 11 12 13 16 19 18 19 23 24 28 40 55 94 100
100 100 100 81 77 87 73 76 66 65 72 82 98 63 75 55 52 36 27 29 24 21 13 9 9 9 8 8 6 6 6 6 8 10 12 14 15 20 24 24 31 53 63 100
92 95 90 84 97 76 84 85 78 77 70 81 100 55 60 67 43 29 30 28 23 13 10 10 7 6 6 6 5 5 5 5 4 5 7 9 10 15 22 22 27 33 47 100
98 100 98 100 99 100 100 92 94 68 83 88 86 72 76 83 50 39 35 26 15 12 9 7 7 7 6 5 4 4 4 4 4 4 5 6 6 10 15 17 22 31 43 68
83 85 84 77 86 100 100 100 88 79 86 96 100 82 74 60 42 38 34 22 16 12 9 11 16 13 8 6 6 5 5 4 3 3 3 4 5 7 10 15 19 23 26 86
38 51 61 61 83 100 99 98 100 95 99 100 100 78 73 51 43 37 28 19 15 16 13 19 15 11 8 7 6 6 5 5 3 3 2 3 4 6 8 10 16 20 39 100
34 42 43 40 42 50 68 61 74 67 86 99 98 85 65 56 44 34 22 19 16 23 24 20 24 15 10 8 8 7 5 4 3 3 2 2 3 5 7 10 16 25 90 100
44 27 36 28 24 43 36 58 86 97 97 100 91 70 67 55 40 31 22 17 23 36 35 35 27 19 16 12 13 16 7 4 3 3 2 2 3 5 8 12 24 67 100 100
24 23 33 30 48 70 95 100 100 100 98 99 77 81 89 55 42 27 22 21 41 57 54 51 36 29 18 13 14 10 7 5 3 2 2 2 3 7 18 34 74 91 99 100
21 24 34 62 77 84 100 100 100 100 100 100 76 97 89 58 39 27 25 31 58 86 77 62 48 40 29 13 9 6 5 4 3 3 3 3 5 34 48 61 91 97 100 100
27 45 87 100 100 100 100 100 100 100 100 83 84 100 70 53 40 35 28 49 64 72 95 86 72 56 42 24 9 7 4 5 5 4 4 4 20 56 85 100 100 100 100 100
33 78 100 100 94 100 100 100 100 100 84 95 100 100 74 57 49 48 35 40 61 79 94 81 86 73 53 24 13 9 7 9 7 5 21 6 12 46 73 100 100 100 100 100
64 100 100 100 98 100 100 100 100 81 99 100 100 100 74 61 46 53 44 35 64 77 100 91 89 81 55 24 21 15 30 13 13 7 6 8 35 95 100 100 99 95 100 100
89 100 100 100 100 100 100 100 100 88 96 96 100 97 84 72 47 52 51 43 54 68 99 98 98 80 65 29 29 24 35 18 25 7 9 13 69 99 100 100 100 100 100 100
100 100 100 100 100 100 100 100 97 100 75 100 100 91 94 72 54 48 53 54 48 67 85 98 100 89 67 43 33 22 44 32 50 11 13 17 33 51 82 100 100 100 100 94
100 100 100 100 100 97 78 100 100 93 98 100 100 97 92 73 63 48 50 57 53 63 80 99 96 95 89 74 47 35 51 50 62 23 20 28 51 71 87 100 100 100 100 100
100 100 100 100 90 99 100 100 100 88 100 100 94 89 92 81 66 52 52 48 59 69 70 93 98 97 86 77 64 73 42 56 58 72 39 53 89 100 100 100 100 100 100 100
100 100 100 100 85 100 100 100 100 100 100 95 100 97 79 71 63 53 56 51 54 66 80 89 98 100 96 83 80 86 63 64 94 99 60 76 100 100 100 100 93 100 100 100
100 98 94 100 100 100 100 100 100 99 96 97 97 86 66 58 55 49 51 51 50 53 83 95 98 84 100 95 80 72 97 82 97 100 97 76 76 89 100 100 91 100 100 100
100 100 100 100 98 90 98 100 97 97 100 94 86 65 57 49 47 50 52 46 46 44 64 91 100 96 89 98 95 82 72 92 100 100 100 85 59 56 58 56 86 89 91 83
100 100 99 99 100 100 100 96 86 93 91 83 60 58 46 41 44 45 42 36 36 41 46 85 94 100 100 98 94 93 82 74 88 100 100 99 85 77 72 66 37 34 42 50
91 86 99 97 100 98 95 92 100 91 76 59 54 42 39 36 33 27 28 26 27 33 43 61 92 100 100 100 97 100 98 84 78 77 85 96 99 92 73 54 44 50 57 58
91 93 100 100 96 89 92 92 79 63 61 56 44 40 33 22 18 17 19 20 22 26 34 51 88 94 100 100 100 100 100 94 98 86 79 67 60 61 66 61 56 54 59 46
95 100 92 92 95 98 93 74 68 66 50 42 39 30 19 14 14 15 17 20 22 26 33 40 56 84 95 95 93 95 97 100 100 100 91 73 69 68 63 57 57 53 43 43

GFSCGP_250_rhum_132.txt.gz
RH
92 90 100 100 78 77 82 79 76 80 68 67 84 64 47 54 59 45 51 42 34 25 25 21 22 25 23 23 22 22 20 20 21 18 17 20 17 19 24 34 60 99 97 65
100 93 100 100 92 68 77 97 96 84 89 91 72 68 71 62 52 56 58 68 32 37 30 20 23 22 22 20 18 16 16 16 18 19 18 18 17 15 20 23 28 49 63 76
97 100 96 92 79 87 99 86 100 98 100 90 77 69 83 65 62 72 66 45 43 33 24 22 24 25 20 15 12 10 9 9 10 11 13 16 18 16 16 21 22 25 39 61
100 100 100 99 98 98 85 97 81 76 71 67 81 79 60 84 85 89 62 54 50 30 25 28 28 20 12 11 9 8 7 6 6 6 7 9 13 15 15 18 20 22 25 36
100 100 98 100 99 91 96 97 98 77 61 72 86 81 76 87 100 84 81 68 46 30 31 34 21 14 11 9 8 7 6 6 5 5 5 6 7 9 11 15 18 18 22 26
98 100 98 87 90 95 82 68 61 53 43 49 80 72 59 98 98 95 86 56 43 33 37 25 15 14 9 11 12 9 7 7 7 6 4 5 6 6 7 10 12 17 19 24
88 96 97 78 76 72 64 54 55 48 47 51 53 53 66 85 82 84 74 60 41 39 29 20 17 12 16 20 15 12 11 8 7 7 5 4 4 5 6 6 10 12 18 20
96 100 100 76 54 50 52 58 43 41 39 42 52 57 68 80 73 83 78 57 44 34 23 20 16 18 28 19 15 10 9 7 6 5 6 5 4 3 4 5 6 8 13 20
69 66 71 64 63 51 41 45 32 27 26 30 58 74 84 91 100 82 71 54 43 29 26 19 23 23 28 23 16 14 9 9 10 7 4 4 4 3 3 4 5 7 12 17
72 50 55 62 46 36 34 25 18 26 30 47 89 100 100 100 100 91 70 53 38 29 24 23 36 37 30 29 20 20 15 20 34 13 4 3 3 3 3 3 4 7 12 15
56 45 47 46 35 20 23 21 24 39 63 97 100 100 100 100 98 82 68 49 36 31 24 36 49 48 31 36 42 28 26 31 43 7 4 3 3 3 2 3 4 8 13 19
55 39 42 29 23 22 25 29 36 62 99 100 96 100 100 100 90 92 63 46 38 38 26 43 62 68 47 42 34 30 22 15 28 9 5 3 3 2 2 4 6 12 17 18
55 30 24 27 26 37 51 89 100 100 100 93 98 100 100 100 94 100 68 46 42 42 32 39 59 73 70 57 40 26 29 32 30 12 5 4 3 3 4 7 12 17 18 21
43 22 26 26 35 58 71 100 100 99 92 95 100 100 100 91 93 100 65 51 44 42 40 35 65 79 71 73 47 25 36 68 42 10 5 6 5 6 8 12 16 22 39 78
20 24 25 33 46 58 71 98 100 100 89 100 100 100 89 78 100 94 66 58 52 48 44 40 61 62 79 76 46 32 34 62 46 30 14 15 17 10 14 16 19 30 71 100
21 28 28 47 46 76 87 100 98 85 100 100 100 100 83 84 100 77 69 56 50 46 50 45 50 59 68 87 59 35 44 59 37 28 26 20 26 28 18 27 49 93 100 95
23 30 37 66 74 79 100 100 76 98 100 100 100 96 84 98 99 78 72 64 55 48 47 48 45 56 64 82 85 61 39 74 37 16 32 38 32 18 22 28 74 100 100 100
25 44 62 97 77 77 100 100 99 100 100 96 100 84 84 100 81 79 78 66 62 52 46 49 49 50 59 77 86 76 54 68 48 36 20 20 46 28 32 79 100 100 100 100
37 52 85 100 69 96 100 100 100 82 98 100 100 83 98 92 85 78 80 67 63 54 47 49 53 48 68 76 77 89 74 49 60 44 15 13 37 35 55 89 100 100 100 100
63 84 96 86 88 96 100 100 91 74 74 84 100 100 98 90 74 77 70 66 62 52 50 48 52 48 56 68 85 78 90 69 67 65 26 16 28 54 79 100 100 100 100 100
99 98 94 100 100 99 100 99 75 75 87 100 100 100 100 89 77 75 65 64 53 45 45 46 46 47 49 66 83 80 79 86 82 59 41 16 21 41 61 86 100 100 100 100
88 97 100 100 99 100 100 91 79 88 98 100 100 97 91 78 75 64 62 56 46 43 44 42 41 44 46 61 76 82 71 70 76 76 67 35 23 36 82 99 100 100 100 100
99 99 100 96 100 100 80 98 100 100 99 96 93 81 74 69 66 64 52 43 41 40 37 34 34 37 42 61 67 65 89 68 66 74 82 86 62 34 79 100 100 100 100 100
100 97 87 91 81 86 96 96 90 86 85 81 71 74 62 68 58 45 43 38 32 26 23 24 28 32 39 41 67 69 62 74 55 62 85 93 72 90 66 78 88 100 100 100
95 87 90 82 74 87 78 78 76 80 90 85 72 67 66 51 48 41 33 22 18 16 16 18 22 28 35 39 51 75 76 61 64 55 52 82 78 84 93 95 86 70 67 75
97 99 84 70 76 77 77 80 91 88 72 63 69 61 52 43 38 26 18 14 13 14 14 17 20 25 32 40 50 58 65 81 67 60 58 49 62 77 64 43 45 52 61 67

GFSCGP_250_rhum_135.txt.gz
RH
65 96 100 100 100 92 81 74 79 96 92 63 66 72 77 72 88 92 74 55 49 56 44 42 40 36 24 19 18 16 18 17 17 18 18 19 20 20 15 16 20 26 29 37
100 100 100 100 100 86 85 89 98 92 82 83 81 78 85 89 91 71 60 49 44 30 40 42 38 35 19 16 18 16 16 15 14 14 15 16 17 18 16 13 15 18 23 27
88 100 100 98 99 94 87 92 100 100 100 100 100 83 73 71 68 63 56 54 41 38 47 48 38 30 25 19 16 17 17 16 13 12 11 11 13 15 19 13 12 16 19 23
98 100 100 100 100 93 96 100 93 79 80 83 81 64 78 67 59 61 62 50 40 38 49 54 49 49 25 22 22 21 18 13 10 8 6 6 7 8 10 13 11 12 17 20
100 100 100 100 94 86 82 88 81 72 70 64 74 79 65 67 66 61 52 49 42 43 49 60 44 28 27 27 26 19 13 10 7 7 7 6 5 5 7 9 11 12 15 17
93 99 100 96 93 86 75 70 69 74 89 78 59 53 56 58 51 46 48 41 48 60 68 48 40 35 36 28 18 14 14 10 8 8 7 6 5 5 5 6 6 8 11 16
94 100 100 92 90 98 86 78 73 77 80 66 69 59 55 52 48 39 37 38 70 84 69 73 42 38 30 19 14 14 15 12 9 7 7 8 7 6 4 4 5 5 8 13
95 98 95 96 98 100 100 100 95 70 59 59 61 49 41 32 25 25 32 52 85 85 74 50 45 33 22 18 17 28 27 22 12 9 9 7 6 6 5 3 4 4 5 10
79 77 84 88 88 74 76 78 77 70 57 46 41 27 25 22 24 37 62 99 100 82 91 55 44 29 22 21 20 37 37 26 21 16 16 16 9 5 5 6 4 4 4 6
76 76 94 100 100 87 73 62 64 61 37 26 19 21 26 29 45 82 100 100 100 100 75 55 42 27 23 27 25 30 39 41 20 16 19 19 6 4 4 3 3 3 4 5
67 69 68 85 96 82 69 54 59 52 21 14 17 24 47 67 85 100 100 100 100 93 66 50 38 30 27 31 30 28 35 41 21 23 47 28 9 4 3 3 3 3 3 4
75 60 74 75 84 56 51 56 55 28 18 18 28 68 83 88 98 98 100 100 100 87 65 47 38 33 34 32 32 34 37 40 23 45 55 38 12 5 3 3 3 3 3 5
87 70 69 72 67 61 58 63 36 22 25 45 79 100 100 100 89 100 100 100 99 82 60 46 40 38 41 44 44 43 52 43 25 62 67 46 18 5 4 4 3 3 4 5
94 92 62 59 62 58 49 44 24 41 60 79 100 100 99 89 100 100 99 87 86 80 52 49 41 41 40 46 46 46 64 71 47 70 76 27 12 7 6 5 5 4 5 7
79 65 66 64 55 39 31 24 35 94 92 90 94 99 92 100 100 91 95 79 95 70 53 49 48 42 43 43 46 54 54 80 68 64 78 31 9 8 8 7 8 7 8 10
77 61 40 36 39 26 21 29 64 98 97 90 100 100 75 100 100 100 100 88 92 66 57 49 46 46 46 45 43 58 72 57 80 67 88 43 29 34 21 34 33 11 16 20
40 26 25 37 26 20 23 71 75 98 100 96 97 92 88 100 100 100 99 98 90 59 56 50 45 48 44 47 45 50 84 57 77 75 98 84 71 66 50 81 53 24 23 17
24 24 21 28 22 21 36 79 84 97 100 100 95 99 78 97 100 100 98 82 69 57 55 52 45 48 46 45 47 43 61 83 67 80 72 98 91 84 63 60 52 52 25 21
22 20 22 23 23 23 50 91 99 97 100 100 93 93 84 96 83 80 71 75 67 61 56 51 50 50 45 45 46 46 49 70 82 77 80 69 80 85 64 48 47 34 24 22
20 20 20 23 21 29 65 90 100 85 98 91 90 99 75 60 59 69 79 79 58 54 51 47 59 56 48 46 47 47 43 60 80 84 82 68 68 57 67 29 28 28 31 33
20 20 22 21 30 58 88 81 93 92 100 99 98 87 68 60 67 77 81 65 58 51 53 56 53 52 48 44 44 43 43 51 78 93 100 93 84 62 60 37 29 34 37 39
23 24 29 40 71 91 95 100 98 93 100 99 98 92 65 71 78 80 77 64 53 53 54 51 48 48 43 39 39 39 40 40 61 80 97 98 95 75 71 38 32 38 45 52
29 41 71 90 100 100 98 94 91 99 100 100 100 69 72 69 68 66 57 56 55 52 50 44 43 39 33 30 31 33 36 38 47 67 77 94 95 81 66 35 34 43 69 100
50 76 97 99 100 100 100 100 99 91 95 82 72 77 68 69 61 58 64 59 56 50 44 36 26 22 20 21 24 27 30 36 40 62 62 74 86 88 73 50 38 54 96 100
98 100 99 100 100 100 100 100 100 88 70 80 74 62 57 63 78 74 62 55 50 43 30 19 15 14 14 16 18 23 29 34 37 44 49 48 64 70 72 63 41 55 92 100
100 99 100 100 99 97 91 92 87 73 68 64 59 71 89 88 70 62 57 50 40 25 15 12 12 12 13 15 18 22 27 33 35 37 43 46 48 50 52 62 67 43 79 100